Time,TemperatureF,DewpointF,PressureIn,WindDirection,WindDirectionDegrees,WindSpeedMPH,WindSpeedGustMPH,Humidity,HourlyPrecipIn,Conditions,Clouds,dailyrainin,SolarRadiationWatts/m^2,SoftwareType,DateUTC
2013-10-22 00:00:00,48.4,39.8,29.95,WSW,250,0.0,0.0,72,0.00,,,0.00,0,WeatherCatV1.21B27,2013-10-22 05:00:00,
2013-10-22 00:02:00,48.3,39.7,29.94,WSW,251,0.0,0.0,72,0.00,,,0.00,0,WeatherCatV1.21B27,2013-10-22 05:02:00,
2013-10-22 00:03:00,48.3,39.7,29.94,WSW,250,0.0,3.0,72,0.00,,,0.00,0,WeatherCatV1.21B27,2013-10-22 05:03:00,
2013-10-22 00:04:00,48.3,39.7,29.94,WSW,251,0.0,3.0,72,0.00,,,0.00,0,WeatherCatV1.21B27,2013-10-22 05:04:00,
2013-10-22 00:05:00,48.3,39.7,29.95,WSW,251,0.0,3.0,72,0.00,,,0.00,0,WeatherCatV1.21B27,2013-10-22 05:05:00,
2013-10-22 00:06:00,48.3,39.7,29.95,WSW,251,0.0,0.0,72,0.00,,,0.00,0,WeatherCatV1.21B27,2013-10-22 05:06:00,
2013-10-22 00:07:00,48.3,39.7,29.95,WSW,251,1.0,3.0,72,0.00,,,0.00,0,WeatherCatV1.21B27,2013-10-22 05:07:00,
2013-10-22 00:08:00,48.3,40.0,29.95,WSW,250,2.0,2.0,73,0.00,,,0.00,0,WeatherCatV1.21B27,2013-10-22 05:08:00,
2013-10-22 00:09:00,48.2,40.0,29.95,WSW,250,0.0,2.0,73,0.00,,,0.00,0,WeatherCatV1.21B27,2013-10-22 05:09:00,
2013-10-22 00:10:00,48.2,40.0,29.94,WSW,251,0.0,2.0,73,0.00,,,0.00,0,WeatherCatV1.21B27,2013-10-22 05:10:00,
2013-10-22 00:11:00,48.2,40.0,29.94,WSW,251,0.0,1.0,73,0.00,,,0.00,0,WeatherCatV1.21B27,2013-10-22 05:11:00,
2013-10-22 00:12:00,48.2,40.0,29.94,WSW,251,0.0,2.0,73,0.00,,,0.00,0,WeatherCatV1.21B27,2013-10-22 05:12:00,
2013-10-22 00:14:00,48.3,40.0,29.94,WSW,251,0.0,0.0,73,0.00,,,0.00,0,WeatherCatV1.21B27,2013-10-22 05:14:00,
2013-10-22 00:15:00,48.3,40.0,29.94,WSW,250,0.0,0.0,73,0.00,,,0.00,0,WeatherCatV1.21B27,2013-10-22 05:15:00,
2013-10-22 00:16:00,48.3,40.0,29.94,WSW,250,3.0,3.0,73,0.00,,,0.00,0,WeatherCatV1.21B27,2013-10-22 05:16:00,
2013-10-22 00:17:00,48.3,40.0,29.94,WSW,251,1.0,3.0,73,0.00,,,0.00,0,WeatherCatV1.21B27,2013-10-22 05:17:00,
2013-10-22 00:19:00,48.3,40.0,29.94,WSW,251,2.0,3.0,73,0.00,,,0.00,0,WeatherCatV1.21B27,2013-10-22 05:19:00,
2013-10-22 00:20:00,48.3,40.0,29.94,WSW,251,0.0,1.0,73,0.00,,,0.00,0,WeatherCatV1.21B27,2013-10-22 05:20:00,
2013-10-22 00:21:00,48.4,40.2,29.94,WSW,251,0.0,0.0,73,0.00,,,0.00,0,WeatherCatV1.21B27,2013-10-22 05:21:00,
2013-10-22 00:23:00,48.4,40.2,29.94,WSW,250,0.0,0.0,73,0.00,,,0.00,0,WeatherCatV1.21B27,2013-10-22 05:23:00,
2013-10-22 00:24:00,48.4,40.2,29.94,WSW,250,0.0,0.0,73,0.00,,,0.00,0,WeatherCatV1.21B27,2013-10-22 05:24:00,
2013-10-22 00:25:00,48.4,40.2,29.94,WSW,250,0.0,0.0,73,0.00,,,0.00,0,WeatherCatV1.21B27,2013-10-22 05:25:00,
2013-10-22 00:26:00,48.4,40.2,29.94,WSW,251,0.0,0.0,73,0.00,,,0.00,0,WeatherCatV1.21B27,2013-10-22 05:26:00,
2013-10-22 00:27:00,48.4,40.2,29.94,WSW,250,0.0,0.0,73,0.00,,,0.00,0,WeatherCatV1.21B27,2013-10-22 05:27:00,
2013-10-22 00:28:00,48.4,40.5,29.94,WSW,251,0.0,0.0,74,0.00,,,0.00,0,WeatherCatV1.21B27,2013-10-22 05:28:00,
2013-10-22 00:29:00,48.4,40.5,29.94,WSW,250,0.0,2.0,74,0.00,,,0.00,0,WeatherCatV1.21B27,2013-10-22 05:29:00,
2013-10-22 00:30:00,48.3,40.0,29.94,WSW,251,0.0,0.0,73,0.00,,,0.00,0,WeatherCatV1.21B27,2013-10-22 05:30:00,
2013-10-22 00:31:00,48.3,40.4,29.94,WSW,251,0.0,0.0,74,0.00,,,0.00,0,WeatherCatV1.21B27,2013-10-22 05:31:00,
2013-10-22 00:32:00,48.3,40.4,29.94,WSW,251,0.0,0.0,74,0.00,,,0.00,0,WeatherCatV1.21B27,2013-10-22 05:32:00,
2013-10-22 00:33:00,48.3,40.4,29.94,WSW,250,0.0,1.0,74,0.00,,,0.00,0,WeatherCatV1.21B27,2013-10-22 05:33:00,
2013-10-22 00:34:00,48.2,40.3,29.94,WSW,251,2.0,2.0,74,0.00,,,0.00,0,WeatherCatV1.21B27,2013-10-22 05:34:00,
2013-10-22 00:35:00,48.2,40.3,29.94,WSW,251,2.0,2.0,74,0.00,,,0.00,0,WeatherCatV1.21B27,2013-10-22 05:35:00,
2013-10-22 00:36:00,48.2,40.3,29.94,WSW,250,0.0,2.0,74,0.00,,,0.00,0,WeatherCatV1.21B27,2013-10-22 05:36:00,
2013-10-22 00:37:00,48.2,40.3,29.94,WSW,251,1.0,2.0,74,0.00,,,0.00,0,WeatherCatV1.21B27,2013-10-22 05:37:00,
2013-10-22 00:38:00,48.2,40.3,29.94,WSW,251,0.0,2.0,74,0.00,,,0.00,0,WeatherCatV1.21B27,2013-10-22 05:38:00,
2013-10-22 00:39:00,48.2,40.3,29.94,WSW,251,1.0,3.0,74,0.00,,,0.00,0,WeatherCatV1.21B27,2013-10-22 05:39:00,
2013-10-22 00:41:00,48.2,40.3,29.94,WSW,251,3.0,3.0,74,0.00,,,0.00,0,WeatherCatV1.21B27,2013-10-22 05:41:00,
2013-10-22 00:42:00,48.2,40.3,29.94,WSW,250,3.0,3.0,74,0.00,,,0.00,0,WeatherCatV1.21B27,2013-10-22 05:42:00,
2013-10-22 00:43:00,48.2,40.3,29.94,WSW,251,2.0,3.0,74,0.00,,,0.00,0,WeatherCatV1.21B27,2013-10-22 05:43:00,
2013-10-22 00:45:00,48.2,40.7,29.94,WSW,251,0.0,4.0,75,0.00,,,0.00,0,WeatherCatV1.21B27,2013-10-22 05:45:00,
2013-10-22 00:46:00,48.2,40.7,29.94,WSW,250,0.0,3.0,75,0.00,,,0.00,0,WeatherCatV1.21B27,2013-10-22 05:46:00,
2013-10-22 00:47:00,48.2,40.7,29.94,WSW,250,2.0,2.0,75,0.00,,,0.00,0,WeatherCatV1.21B27,2013-10-22 05:47:00,
2013-10-22 00:48:00,48.2,40.7,29.94,WSW,251,0.0,2.0,75,0.00,,,0.00,0,WeatherCatV1.21B27,2013-10-22 05:48:00,
2013-10-22 00:50:00,48.2,40.7,29.94,WSW,251,0.0,0.0,75,0.00,,,0.00,0,WeatherCatV1.21B27,2013-10-22 05:50:00,
2013-10-22 00:51:00,48.2,40.7,29.94,WSW,251,0.0,0.0,75,0.00,,,0.00,0,WeatherCatV1.21B27,2013-10-22 05:51:00,
2013-10-22 00:52:00,48.2,40.7,29.94,WSW,251,0.0,0.0,75,0.00,,,0.00,0,WeatherCatV1.21B27,2013-10-22 05:52:00,
2013-10-22 00:53:00,48.2,40.7,29.94,WSW,250,1.0,3.0,75,0.00,,,0.00,0,WeatherCatV1.21B27,2013-10-22 05:53:00,
2013-10-22 00:55:00,48.2,40.7,29.94,WSW,251,0.0,3.0,75,0.00,,,0.00,0,WeatherCatV1.21B27,2013-10-22 05:55:00,
2013-10-22 00:56:00,48.1,40.6,29.94,WSW,250,0.0,2.0,75,0.00,,,0.00,0,WeatherCatV1.21B27,2013-10-22 05:56:00,
2013-10-22 00:57:00,48.1,40.6,29.94,WSW,251,0.0,2.0,75,0.00,,,0.00,0,WeatherCatV1.21B27,2013-10-22 05:57:00,
2013-10-22 00:58:00,48.1,40.9,29.94,WSW,251,4.0,5.0,76,0.00,,,0.00,0,WeatherCatV1.21B27,2013-10-22 05:58:00,
2013-10-22 01:00:00,48.1,40.9,29.94,WSW,250,1.0,2.0,76,0.00,,,0.00,0,WeatherCatV1.21B27,2013-10-22 06:00:00,
2013-10-22 01:01:00,48.1,40.9,29.94,WSW,251,0.0,2.0,76,0.00,,,0.00,0,WeatherCatV1.21B27,2013-10-22 06:01:00,
2013-10-22 01:02:00,48.1,40.9,29.94,WSW,250,0.0,2.0,76,0.00,,,0.00,0,WeatherCatV1.21B27,2013-10-22 06:02:00,
2013-10-22 01:03:00,48.1,40.9,29.94,WSW,251,0.0,0.0,76,0.00,,,0.00,0,WeatherCatV1.21B27,2013-10-22 06:03:00,
2013-10-22 01:04:00,48.1,40.9,29.94,WSW,250,2.0,3.0,76,0.00,,,0.00,0,WeatherCatV1.21B27,2013-10-22 06:04:00,
2013-10-22 01:05:00,48.1,40.9,29.94,WSW,250,0.0,3.0,76,0.00,,,0.00,0,WeatherCatV1.21B27,2013-10-22 06:05:00,
2013-10-22 01:06:00,48.1,40.9,29.94,WSW,251,0.0,4.0,76,0.00,,,0.00,0,WeatherCatV1.21B27,2013-10-22 06:06:00,
2013-10-22 01:07:00,48.1,40.9,29.94,WSW,251,0.0,4.0,76,0.00,,,0.00,0,WeatherCatV1.21B27,2013-10-22 06:07:00,
2013-10-22 01:08:00,48.0,40.8,29.94,WSW,251,0.0,0.0,76,0.00,,,0.00,0,WeatherCatV1.21B27,2013-10-22 06:08:00,
2013-10-22 01:09:00,48.0,40.8,29.94,WSW,251,0.0,1.0,76,0.00,,,0.00,0,WeatherCatV1.21B27,2013-10-22 06:09:00,
2013-10-22 01:10:00,48.0,40.8,29.94,WSW,251,0.0,1.0,76,0.00,,,0.00,0,WeatherCatV1.21B27,2013-10-22 06:10:00,
2013-10-22 01:11:00,48.1,40.9,29.95,WSW,251,0.0,3.0,76,0.00,,,0.00,0,WeatherCatV1.21B27,2013-10-22 06:11:00,
2013-10-22 01:12:00,48.0,40.8,29.95,WSW,251,1.0,2.0,76,0.00,,,0.00,0,WeatherCatV1.21B27,2013-10-22 06:12:00,
2013-10-22 01:13:00,48.0,41.1,29.95,WSW,252,4.0,5.0,77,0.00,,,0.00,0,WeatherCatV1.21B27,2013-10-22 06:13:00,
2013-10-22 01:14:00,48.0,41.1,29.94,WSW,252,1.0,5.0,77,0.00,,,0.00,0,WeatherCatV1.21B27,2013-10-22 06:14:00,
2013-10-22 01:15:00,48.0,40.8,29.94,WSW,252,0.0,5.0,76,0.00,,,0.00,0,WeatherCatV1.21B27,2013-10-22 06:15:00,
2013-10-22 01:16:00,48.0,41.1,29.95,WSW,252,0.0,3.0,77,0.00,,,0.00,0,WeatherCatV1.21B27,2013-10-22 06:16:00,
2013-10-22 01:17:00,48.0,41.1,29.95,WSW,252,3.0,3.0,77,0.00,,,0.00,0,WeatherCatV1.21B27,2013-10-22 06:17:00,
2013-10-22 01:18:00,48.0,41.1,29.95,WSW,252,0.0,3.0,77,0.00,,,0.00,0,WeatherCatV1.21B27,2013-10-22 06:18:00,
2013-10-22 01:19:00,47.9,41.0,29.95,WSW,252,0.0,3.0,77,0.00,,,0.00,0,WeatherCatV1.21B27,2013-10-22 06:19:00,
2013-10-22 01:20:00,47.9,41.0,29.95,WSW,252,0.0,2.0,77,0.00,,,0.00,0,WeatherCatV1.21B27,2013-10-22 06:20:00,
2013-10-22 01:21:00,47.9,41.0,29.94,WSW,252,3.0,5.0,77,0.00,,,0.00,0,WeatherCatV1.21B27,2013-10-22 06:21:00,
2013-10-22 01:22:00,47.9,41.0,29.94,WSW,252,1.0,5.0,77,0.00,,,0.00,0,WeatherCatV1.21B27,2013-10-22 06:22:00,
2013-10-22 01:23:00,47.9,41.0,29.95,WSW,252,4.0,6.0,77,0.00,,,0.00,0,WeatherCatV1.21B27,2013-10-22 06:23:00,
2013-10-22 01:24:00,47.9,41.0,29.94,WSW,252,3.0,6.0,77,0.00,,,0.00,0,WeatherCatV1.21B27,2013-10-22 06:24:00,
2013-10-22 01:25:00,47.9,41.0,29.95,WSW,252,4.0,4.0,77,0.00,,,0.00,0,WeatherCatV1.21B27,2013-10-22 06:25:00,
2013-10-22 01:26:00,47.8,40.9,29.95,WSW,252,3.0,4.0,77,0.00,,,0.00,0,WeatherCatV1.21B27,2013-10-22 06:26:00,
2013-10-22 01:27:00,47.9,41.0,29.95,WSW,252,4.0,5.0,77,0.00,,,0.00,0,WeatherCatV1.21B27,2013-10-22 06:27:00,
2013-10-22 01:28:00,47.8,40.9,29.95,WSW,252,1.0,5.0,77,0.00,,,0.00,0,WeatherCatV1.21B27,2013-10-22 06:28:00,
2013-10-22 01:29:00,47.8,40.9,29.95,WSW,252,2.0,3.0,77,0.00,,,0.00,0,WeatherCatV1.21B27,2013-10-22 06:29:00,
2013-10-22 01:30:00,47.8,40.9,29.95,WSW,252,0.0,3.0,77,0.00,,,0.00,0,WeatherCatV1.21B27,2013-10-22 06:30:00,
2013-10-22 01:31:00,47.8,40.9,29.95,WSW,252,2.0,3.0,77,0.00,,,0.00,0,WeatherCatV1.21B27,2013-10-22 06:31:00,
2013-10-22 01:32:00,47.8,40.9,29.95,WSW,252,5.0,5.0,77,0.00,,,0.00,0,WeatherCatV1.21B27,2013-10-22 06:32:00,
2013-10-22 01:33:00,47.7,40.8,29.95,WSW,252,3.0,6.0,77,0.00,,,0.00,0,WeatherCatV1.21B27,2013-10-22 06:33:00,
2013-10-22 01:34:00,47.7,40.8,29.95,WSW,252,2.0,6.0,77,0.00,,,0.00,0,WeatherCatV1.21B27,2013-10-22 06:34:00,
2013-10-22 01:35:00,47.7,40.8,29.95,WSW,252,0.0,0.0,77,0.00,,,0.00,0,WeatherCatV1.21B27,2013-10-22 06:35:00,
2013-10-22 01:36:00,47.7,40.8,29.95,WSW,252,1.0,1.0,77,0.00,,,0.00,0,WeatherCatV1.21B27,2013-10-22 06:36:00,
2013-10-22 01:37:00,47.7,41.2,29.95,WSW,252,0.0,2.0,78,0.00,,,0.00,0,WeatherCatV1.21B27,2013-10-22 06:37:00,
2013-10-22 01:39:00,47.7,41.2,29.95,WSW,252,0.0,4.0,78,0.00,,,0.00,0,WeatherCatV1.21B27,2013-10-22 06:39:00,
2013-10-22 01:40:00,47.7,41.2,29.95,WSW,252,0.0,4.0,78,0.00,,,0.00,0,WeatherCatV1.21B27,2013-10-22 06:40:00,
2013-10-22 01:41:00,47.7,41.2,29.95,WSW,252,0.0,4.0,78,0.00,,,0.00,0,WeatherCatV1.21B27,2013-10-22 06:41:00,
2013-10-22 01:42:00,47.6,41.1,29.95,WSW,252,2.0,2.0,78,0.00,,,0.00,0,WeatherCatV1.21B27,2013-10-22 06:42:00,
2013-10-22 01:44:00,47.6,41.1,29.95,WSW,252,1.0,2.0,78,0.00,,,0.00,0,WeatherCatV1.21B27,2013-10-22 06:44:00,
2013-10-22 01:45:00,47.6,41.1,29.95,WSW,252,0.0,2.0,78,0.00,,,0.00,0,WeatherCatV1.21B27,2013-10-22 06:45:00,
2013-10-22 01:46:00,47.6,41.1,29.95,WSW,252,0.0,2.0,78,0.00,,,0.00,0,WeatherCatV1.21B27,2013-10-22 06:46:00,
2013-10-22 01:47:00,47.6,41.1,29.95,WSW,252,2.0,2.0,78,0.00,,,0.00,0,WeatherCatV1.21B27,2013-10-22 06:47:00,
2013-10-22 01:50:00,47.5,41.3,29.95,WSW,252,0.0,4.0,79,0.00,,,0.00,0,WeatherCatV1.21B27,2013-10-22 06:50:00,
2013-10-22 01:51:00,47.5,41.3,29.95,WSW,252,0.0,1.0,79,0.00,,,0.00,0,WeatherCatV1.21B27,2013-10-22 06:51:00,
2013-10-22 01:52:00,47.5,41.3,29.94,WSW,252,0.0,0.0,79,0.00,,,0.00,0,WeatherCatV1.21B27,2013-10-22 06:52:00,
2013-10-22 01:55:00,47.5,41.3,29.94,WSW,252,0.0,0.0,79,0.00,,,0.00,0,WeatherCatV1.21B27,2013-10-22 06:55:00,
2013-10-22 01:56:00,47.5,41.3,29.94,WSW,252,0.0,0.0,79,0.00,,,0.00,0,WeatherCatV1.21B27,2013-10-22 06:56:00,
2013-10-22 01:57:00,47.4,41.2,29.94,WSW,252,0.0,2.0,79,0.00,,,0.00,0,WeatherCatV1.21B27,2013-10-22 06:57:00,
2013-10-22 02:00:00,47.4,41.2,29.94,WSW,252,0.0,2.0,79,0.00,,,0.00,0,WeatherCatV1.21B27,2013-10-22 07:00:00,
2013-10-22 02:01:00,47.4,41.2,29.94,WSW,252,0.0,2.0,79,0.00,,,0.00,0,WeatherCatV1.21B27,2013-10-22 07:01:00,
2013-10-22 02:02:00,47.4,41.2,29.94,WSW,252,0.0,2.0,79,0.00,,,0.00,0,WeatherCatV1.21B27,2013-10-22 07:02:00,
2013-10-22 02:05:00,47.4,41.2,29.94,WSW,252,4.0,4.0,79,0.00,,,0.00,0,WeatherCatV1.21B27,2013-10-22 07:05:00,
2013-10-22 02:06:00,47.4,41.2,29.95,WSW,252,1.0,4.0,79,0.00,,,0.00,0,WeatherCatV1.21B27,2013-10-22 07:06:00,
2013-10-22 02:07:00,47.3,41.1,29.94,WSW,252,0.0,3.0,79,0.00,,,0.00,0,WeatherCatV1.21B27,2013-10-22 07:07:00,
2013-10-22 02:08:00,47.3,41.5,29.94,WSW,252,5.0,5.0,80,0.00,,,0.00,0,WeatherCatV1.21B27,2013-10-22 07:08:00,
2013-10-22 02:10:00,47.3,41.5,29.94,WSW,252,4.0,4.0,80,0.00,,,0.00,0,WeatherCatV1.21B27,2013-10-22 07:10:00,
2013-10-22 02:11:00,47.2,41.3,29.94,WSW,252,1.0,4.0,80,0.00,,,0.00,0,WeatherCatV1.21B27,2013-10-22 07:11:00,
2013-10-22 02:12:00,47.2,41.3,29.94,WSW,252,0.0,4.0,80,0.00,,,0.00,0,WeatherCatV1.21B27,2013-10-22 07:12:00,
2013-10-22 02:13:00,47.2,41.7,29.95,WSW,252,0.0,3.0,81,0.00,,,0.00,0,WeatherCatV1.21B27,2013-10-22 07:13:00,
2013-10-22 02:15:00,47.1,41.6,29.94,WSW,252,0.0,3.0,81,0.00,,,0.00,0,WeatherCatV1.21B27,2013-10-22 07:15:00,
2013-10-22 02:16:00,47.1,41.6,29.94,WSW,252,0.0,2.0,81,0.00,,,0.00,0,WeatherCatV1.21B27,2013-10-22 07:16:00,
2013-10-22 02:17:00,47.1,41.6,29.94,WSW,252,0.0,3.0,81,0.00,,,0.00,0,WeatherCatV1.21B27,2013-10-22 07:17:00,
2013-10-22 02:18:00,47.0,41.5,29.94,WSW,252,1.0,3.0,81,0.00,,,0.00,0,WeatherCatV1.21B27,2013-10-22 07:18:00,
2013-10-22 02:19:00,47.0,41.5,29.94,WSW,252,0.0,3.0,81,0.00,,,0.00,0,WeatherCatV1.21B27,2013-10-22 07:19:00,
2013-10-22 02:20:00,47.0,41.5,29.95,WSW,252,2.0,2.0,81,0.00,,,0.00,0,WeatherCatV1.21B27,2013-10-22 07:20:00,
2013-10-22 02:21:00,47.0,41.5,29.94,WSW,252,1.0,3.0,81,0.00,,,0.00,0,WeatherCatV1.21B27,2013-10-22 07:21:00,
2013-10-22 02:22:00,47.0,41.5,29.95,WSW,252,0.0,3.0,81,0.00,,,0.00,0,WeatherCatV1.21B27,2013-10-22 07:22:00,
2013-10-22 02:23:00,47.0,41.8,29.94,WSW,252,0.0,3.0,82,0.00,,,0.00,0,WeatherCatV1.21B27,2013-10-22 07:23:00,
2013-10-22 02:24:00,47.0,41.8,29.94,WSW,252,0.0,1.0,82,0.00,,,0.00,0,WeatherCatV1.21B27,2013-10-22 07:24:00,
2013-10-22 02:26:00,47.0,41.8,29.95,WSW,252,0.0,0.0,82,0.00,,,0.00,0,WeatherCatV1.21B27,2013-10-22 07:26:00,
2013-10-22 02:27:00,47.0,41.8,29.94,WSW,252,0.0,0.0,82,0.00,,,0.00,0,WeatherCatV1.21B27,2013-10-22 07:27:00,
2013-10-22 02:29:00,46.9,41.7,29.95,WSW,252,0.0,1.0,82,0.00,,,0.00,0,WeatherCatV1.21B27,2013-10-22 07:29:00,
2013-10-22 02:31:00,46.9,41.7,29.94,WSW,252,0.0,4.0,82,0.00,,,0.00,0,WeatherCatV1.21B27,2013-10-22 07:31:00,
2013-10-22 02:32:00,46.9,41.7,29.94,WSW,252,0.0,1.0,82,0.00,,,0.00,0,WeatherCatV1.21B27,2013-10-22 07:32:00,
2013-10-22 02:34:00,46.9,41.7,29.94,WSW,252,0.0,2.0,82,0.00,,,0.00,0,WeatherCatV1.21B27,2013-10-22 07:34:00,
2013-10-22 02:36:00,46.9,41.7,29.94,WSW,252,0.0,4.0,82,0.00,,,0.00,0,WeatherCatV1.21B27,2013-10-22 07:36:00,
2013-10-22 02:37:00,47.0,41.8,29.94,WSW,252,3.0,6.0,82,0.00,,,0.00,0,WeatherCatV1.21B27,2013-10-22 07:37:00,
2013-10-22 02:38:00,47.0,41.8,29.94,WSW,252,3.0,6.0,82,0.00,,,0.00,0,WeatherCatV1.21B27,2013-10-22 07:38:00,
2013-10-22 02:39:00,47.0,41.8,29.94,WSW,252,2.0,4.0,82,0.00,,,0.00,0,WeatherCatV1.21B27,2013-10-22 07:39:00,
2013-10-22 02:41:00,47.1,41.9,29.94,WSW,252,0.0,4.0,82,0.00,,,0.00,0,WeatherCatV1.21B27,2013-10-22 07:41:00,
2013-10-22 02:43:00,47.1,41.9,29.94,WSW,252,3.0,4.0,82,0.00,,,0.00,0,WeatherCatV1.21B27,2013-10-22 07:43:00,
2013-10-22 02:44:00,47.2,42.0,29.94,WSW,252,4.0,4.0,82,0.00,,,0.00,0,WeatherCatV1.21B27,2013-10-22 07:44:00,
2013-10-22 02:46:00,47.2,42.0,29.94,WSW,252,2.0,4.0,82,0.00,,,0.00,0,WeatherCatV1.21B27,2013-10-22 07:46:00,
2013-10-22 02:48:00,47.3,42.1,29.94,WSW,252,3.0,3.0,82,0.00,,,0.00,0,WeatherCatV1.21B27,2013-10-22 07:48:00,
2013-10-22 02:50:00,47.4,42.2,29.94,WSW,252,0.0,4.0,82,0.00,,,0.00,0,WeatherCatV1.21B27,2013-10-22 07:50:00,
2013-10-22 02:51:00,47.4,41.9,29.94,WSW,252,0.0,4.0,81,0.00,,,0.00,0,WeatherCatV1.21B27,2013-10-22 07:51:00,
2013-10-22 02:53:00,47.5,42.0,29.94,WSW,252,2.0,4.0,81,0.00,,,0.00,0,WeatherCatV1.21B27,2013-10-22 07:53:00,
2013-10-22 02:54:00,47.5,42.0,29.94,WSW,252,3.0,4.0,81,0.00,,,0.00,0,WeatherCatV1.21B27,2013-10-22 07:54:00,
2013-10-22 02:55:00,47.5,42.0,29.94,WSW,252,0.0,3.0,81,0.00,,,0.00,0,WeatherCatV1.21B27,2013-10-22 07:55:00,
2013-10-22 02:57:00,47.5,42.0,29.94,WSW,252,0.0,4.0,81,0.00,,,0.00,0,WeatherCatV1.21B27,2013-10-22 07:57:00,
2013-10-22 02:59:00,47.6,42.1,29.94,WSW,252,2.0,3.0,81,0.00,,,0.00,0,WeatherCatV1.21B27,2013-10-22 07:59:00,
2013-10-22 03:00:00,47.6,42.1,29.94,WSW,252,4.0,4.0,81,0.00,,,0.00,0,WeatherCatV1.21B27,2013-10-22 08:00:00,
2013-10-22 03:02:00,47.6,42.1,29.94,WSW,252,0.0,4.0,81,0.00,,,0.00,0,WeatherCatV1.21B27,2013-10-22 08:02:00,
2013-10-22 03:04:00,47.7,42.2,29.94,WSW,252,1.0,4.0,81,0.00,,,0.00,0,WeatherCatV1.21B27,2013-10-22 08:04:00,
2013-10-22 03:05:00,47.7,42.2,29.94,WSW,252,2.0,4.0,81,0.00,,,0.00,0,WeatherCatV1.21B27,2013-10-22 08:05:00,
2013-10-22 03:06:00,47.7,42.2,29.94,WSW,252,2.0,3.0,81,0.00,,,0.00,0,WeatherCatV1.21B27,2013-10-22 08:06:00,
2013-10-22 03:07:00,47.8,42.3,29.94,WSW,252,5.0,5.0,81,0.00,,,0.00,0,WeatherCatV1.21B27,2013-10-22 08:07:00,
2013-10-22 03:09:00,47.9,42.3,29.94,WSW,257,5.0,6.0,81,0.00,,,0.00,0,WeatherCatV1.21B27,2013-10-22 08:09:00,
2013-10-22 03:10:00,47.9,42.3,29.94,WSW,257,0.0,6.0,81,0.00,,,0.00,0,WeatherCatV1.21B27,2013-10-22 08:10:00,
2013-10-22 03:11:00,48.0,42.1,29.94,WSW,256,1.0,6.0,80,0.00,,,0.00,0,WeatherCatV1.21B27,2013-10-22 08:11:00,
2013-10-22 03:12:00,48.1,42.2,29.94,WSW,257,3.0,6.0,80,0.00,,,0.00,0,WeatherCatV1.21B27,2013-10-22 08:12:00,
2013-10-22 03:13:00,48.1,42.2,29.94,WSW,258,1.0,4.0,80,0.00,,,0.00,0,WeatherCatV1.21B27,2013-10-22 08:13:00,
2013-10-22 03:14:00,48.1,42.2,29.94,WSW,258,2.0,4.0,80,0.00,,,0.00,0,WeatherCatV1.21B27,2013-10-22 08:14:00,
2013-10-22 03:15:00,48.1,42.2,29.94,WSW,258,3.0,5.0,80,0.00,,,0.00,0,WeatherCatV1.21B27,2013-10-22 08:15:00,
2013-10-22 03:16:00,48.1,42.2,29.94,WSW,258,0.0,5.0,80,0.00,,,0.00,0,WeatherCatV1.21B27,2013-10-22 08:16:00,
2013-10-22 03:17:00,48.2,42.3,29.95,West,259,4.0,5.0,80,0.00,,,0.00,0,WeatherCatV1.21B27,2013-10-22 08:17:00,
2013-10-22 03:19:00,48.2,42.3,29.94,West,259,1.0,4.0,80,0.00,,,0.00,0,WeatherCatV1.21B27,2013-10-22 08:19:00,
2013-10-22 03:20:00,48.3,42.4,29.94,West,259,1.0,6.0,80,0.00,,,0.00,0,WeatherCatV1.21B27,2013-10-22 08:20:00,
2013-10-22 03:21:00,48.3,42.4,29.94,West,259,2.0,6.0,80,0.00,,,0.00,0,WeatherCatV1.21B27,2013-10-22 08:21:00,
2013-10-22 03:22:00,48.3,42.4,29.94,WSW,258,4.0,5.0,80,0.00,,,0.00,0,WeatherCatV1.21B27,2013-10-22 08:22:00,
2013-10-22 03:24:00,48.3,42.4,29.94,West,264,4.0,6.0,80,0.00,,,0.00,0,WeatherCatV1.21B27,2013-10-22 08:24:00,
2013-10-22 03:25:00,48.3,42.1,29.94,West,265,2.0,6.0,79,0.00,,,0.00,0,WeatherCatV1.21B27,2013-10-22 08:25:00,
2013-10-22 03:26:00,48.3,42.1,29.94,West,265,0.0,6.0,79,0.00,,,0.00,0,WeatherCatV1.21B27,2013-10-22 08:26:00,
2013-10-22 03:27:00,48.4,42.2,29.94,West,267,4.0,5.0,79,0.00,,,0.00,0,WeatherCatV1.21B27,2013-10-22 08:27:00,
2013-10-22 03:29:00,48.4,42.2,29.94,West,268,1.0,7.0,79,0.00,,,0.00,0,WeatherCatV1.21B27,2013-10-22 08:29:00,
2013-10-22 03:30:00,48.4,42.2,29.94,West,268,1.0,7.0,79,0.00,,,0.00,0,WeatherCatV1.21B27,2013-10-22 08:30:00,
2013-10-22 03:31:00,48.4,42.2,29.94,West,268,2.0,6.0,79,0.00,,,0.00,0,WeatherCatV1.21B27,2013-10-22 08:31:00,
2013-10-22 03:32:00,48.4,42.2,29.94,West,268,3.0,5.0,79,0.00,,,0.00,0,WeatherCatV1.21B27,2013-10-22 08:32:00,
2013-10-22 03:35:00,48.3,42.1,29.94,West,269,1.0,3.0,79,0.00,,,0.00,0,WeatherCatV1.21B27,2013-10-22 08:35:00,
2013-10-22 03:36:00,48.3,42.1,29.94,West,269,1.0,5.0,79,0.00,,,0.00,0,WeatherCatV1.21B27,2013-10-22 08:36:00,
2013-10-22 03:37:00,48.3,42.1,29.94,West,269,1.0,5.0,79,0.00,,,0.00,0,WeatherCatV1.21B27,2013-10-22 08:37:00,
2013-10-22 03:38:00,48.3,42.1,29.94,West,269,2.0,4.0,79,0.00,,,0.00,0,WeatherCatV1.21B27,2013-10-22 08:38:00,
2013-10-22 03:40:00,48.2,43.3,29.94,West,269,1.0,5.0,83,0.00,,,0.00,0,WeatherCatV1.21B27,2013-10-22 08:40:00,
2013-10-22 03:41:00,48.2,42.0,29.94,West,269,0.0,4.0,79,0.00,,,0.00,0,WeatherCatV1.21B27,2013-10-22 08:41:00,
2013-10-22 03:42:00,48.1,41.9,29.94,West,269,3.0,4.0,79,0.00,,,0.00,0,WeatherCatV1.21B27,2013-10-22 08:42:00,
2013-10-22 03:43:00,48.1,41.9,29.94,West,270,1.0,4.0,79,0.00,,,0.00,0,WeatherCatV1.21B27,2013-10-22 08:43:00,
2013-10-22 03:45:00,48.0,41.8,29.94,West,270,0.0,5.0,79,0.00,,,0.00,0,WeatherCatV1.21B27,2013-10-22 08:45:00,
2013-10-22 03:46:00,47.9,41.7,29.94,West,271,5.0,5.0,79,0.00,,,0.00,0,WeatherCatV1.21B27,2013-10-22 08:46:00,
2013-10-22 03:47:00,47.9,41.7,29.94,West,271,0.0,5.0,79,0.00,,,0.00,0,WeatherCatV1.21B27,2013-10-22 08:47:00,
2013-10-22 03:48:00,47.8,41.6,29.94,West,271,2.0,4.0,79,0.00,,,0.00,0,WeatherCatV1.21B27,2013-10-22 08:48:00,
2013-10-22 03:50:00,47.7,41.8,29.94,West,271,0.0,6.0,80,0.00,,,0.00,0,WeatherCatV1.21B27,2013-10-22 08:50:00,
2013-10-22 03:51:00,47.7,41.8,29.94,West,271,0.0,6.0,80,0.00,,,0.00,0,WeatherCatV1.21B27,2013-10-22 08:51:00,
2013-10-22 03:52:00,47.6,41.7,29.94,West,271,0.0,0.0,80,0.00,,,0.00,0,WeatherCatV1.21B27,2013-10-22 08:52:00,
2013-10-22 03:53:00,47.6,41.7,29.94,West,271,4.0,4.0,80,0.00,,,0.00,0,WeatherCatV1.21B27,2013-10-22 08:53:00,
2013-10-22 03:55:00,47.4,41.5,29.94,West,271,0.0,6.0,80,0.00,,,0.00,0,WeatherCatV1.21B27,2013-10-22 08:55:00,
2013-10-22 03:56:00,47.4,41.5,29.94,West,270,3.0,6.0,80,0.00,,,0.00,0,WeatherCatV1.21B27,2013-10-22 08:56:00,
2013-10-22 03:57:00,47.4,41.5,29.94,West,271,0.0,6.0,80,0.00,,,0.00,0,WeatherCatV1.21B27,2013-10-22 08:57:00,
2013-10-22 03:58:00,47.3,41.5,29.94,West,271,0.0,4.0,80,0.00,,,0.00,0,WeatherCatV1.21B27,2013-10-22 08:58:00,
2013-10-22 03:59:00,47.3,41.5,29.94,West,269,3.0,3.0,80,0.00,,,0.00,0,WeatherCatV1.21B27,2013-10-22 08:59:00,
2013-10-22 04:01:00,47.2,41.3,29.93,West,271,0.0,4.0,80,0.00,,,0.00,0,WeatherCatV1.21B27,2013-10-22 09:01:00,
2013-10-22 04:02:00,47.1,41.2,29.93,West,271,2.0,5.0,80,0.00,,,0.00,0,WeatherCatV1.21B27,2013-10-22 09:02:00,
2013-10-22 04:03:00,47.1,41.2,29.93,West,271,3.0,5.0,80,0.00,,,0.00,0,WeatherCatV1.21B27,2013-10-22 09:03:00,
2013-10-22 04:04:00,47.0,41.2,29.93,West,271,0.0,4.0,80,0.00,,,0.00,0,WeatherCatV1.21B27,2013-10-22 09:04:00,
2013-10-22 04:06:00,47.0,41.2,29.93,West,271,0.0,6.0,80,0.00,,,0.00,0,WeatherCatV1.21B27,2013-10-22 09:06:00,
2013-10-22 04:08:00,46.9,41.4,29.93,West,271,5.0,6.0,81,0.00,,,0.00,0,WeatherCatV1.21B27,2013-10-22 09:08:00,
2013-10-22 04:09:00,46.9,41.4,29.93,West,271,4.0,5.0,81,0.00,,,0.00,0,WeatherCatV1.21B27,2013-10-22 09:09:00,
2013-10-22 04:11:00,46.9,41.4,29.93,West,271,0.0,3.0,81,0.00,,,0.00,0,WeatherCatV1.21B27,2013-10-22 09:11:00,
2013-10-22 04:13:00,46.8,41.3,29.93,West,271,2.0,4.0,81,0.00,,,0.00,0,WeatherCatV1.21B27,2013-10-22 09:13:00,
2013-10-22 04:14:00,46.8,41.3,29.93,West,271,3.0,5.0,81,0.00,,,0.00,0,WeatherCatV1.21B27,2013-10-22 09:14:00,
2013-10-22 04:16:00,46.8,41.3,29.93,West,269,2.0,7.0,81,0.00,,,0.00,0,WeatherCatV1.21B27,2013-10-22 09:16:00,
2013-10-22 04:17:00,46.8,41.3,29.93,West,269,2.0,7.0,81,0.00,,,0.00,0,WeatherCatV1.21B27,2013-10-22 09:17:00,
2013-10-22 04:18:00,46.8,41.3,29.93,West,269,2.0,7.0,81,0.00,,,0.00,0,WeatherCatV1.21B27,2013-10-22 09:18:00,
2013-10-22 04:19:00,46.8,41.3,29.93,West,269,2.0,3.0,81,0.00,,,0.00,0,WeatherCatV1.21B27,2013-10-22 09:19:00,
2013-10-22 04:21:00,46.7,41.2,29.92,West,269,2.0,5.0,81,0.00,,,0.00,0,WeatherCatV1.21B27,2013-10-22 09:21:00,
2013-10-22 04:22:00,46.7,41.2,29.92,West,275,1.0,9.0,81,0.00,,,0.00,0,WeatherCatV1.21B27,2013-10-22 09:22:00,
2013-10-22 04:23:00,46.8,41.3,29.92,West,275,4.0,9.0,81,0.00,,,0.00,0,WeatherCatV1.21B27,2013-10-22 09:23:00,
2013-10-22 04:24:00,46.7,41.2,29.93,West,275,1.0,9.0,81,0.00,,,0.00,0,WeatherCatV1.21B27,2013-10-22 09:24:00,
2013-10-22 04:25:00,46.7,41.2,29.93,West,275,2.0,5.0,81,0.00,,,0.00,0,WeatherCatV1.21B27,2013-10-22 09:25:00,
2013-10-22 04:27:00,46.7,41.2,29.93,West,275,4.0,4.0,81,0.00,,,0.00,0,WeatherCatV1.21B27,2013-10-22 09:27:00,
2013-10-22 04:28:00,46.7,41.2,29.93,West,275,1.0,4.0,81,0.00,,,0.00,0,WeatherCatV1.21B27,2013-10-22 09:28:00,
2013-10-22 04:29:00,46.7,41.2,29.93,West,275,2.0,6.0,81,0.00,,,0.00,0,WeatherCatV1.21B27,2013-10-22 09:29:00,
2013-10-22 04:30:00,46.6,41.1,29.93,West,275,0.0,6.0,81,0.00,,,0.00,0,WeatherCatV1.21B27,2013-10-22 09:30:00,
2013-10-22 04:32:00,46.6,41.1,29.93,West,276,5.0,5.0,81,0.00,,,0.00,0,WeatherCatV1.21B27,2013-10-22 09:32:00,
2013-10-22 04:33:00,46.6,41.1,29.92,West,269,2.0,6.0,81,0.00,,,0.00,0,WeatherCatV1.21B27,2013-10-22 09:33:00,
2013-10-22 04:34:00,46.6,41.1,29.93,West,269,0.0,6.0,81,0.00,,,0.00,0,WeatherCatV1.21B27,2013-10-22 09:34:00,
2013-10-22 04:35:00,46.6,41.1,29.92,West,269,0.0,5.0,81,0.00,,,0.00,0,WeatherCatV1.21B27,2013-10-22 09:35:00,
2013-10-22 04:37:00,46.6,41.1,29.92,West,269,0.0,3.0,81,0.00,,,0.00,0,WeatherCatV1.21B27,2013-10-22 09:37:00,
2013-10-22 04:38:00,46.5,41.0,29.92,West,269,0.0,2.0,81,0.00,,,0.00,0,WeatherCatV1.21B27,2013-10-22 09:38:00,
2013-10-22 04:39:00,46.5,41.0,29.92,West,273,2.0,7.0,81,0.00,,,0.00,0,WeatherCatV1.21B27,2013-10-22 09:39:00,
2013-10-22 04:40:00,46.5,41.0,29.92,West,273,0.0,7.0,81,0.00,,,0.00,0,WeatherCatV1.21B27,2013-10-22 09:40:00,
2013-10-22 04:42:00,46.4,40.9,29.92,West,275,2.0,7.0,81,0.00,,,0.00,0,WeatherCatV1.21B27,2013-10-22 09:42:00,
2013-10-22 04:43:00,46.4,40.9,29.92,West,275,2.0,7.0,81,0.00,,,0.00,0,WeatherCatV1.21B27,2013-10-22 09:43:00,
2013-10-22 04:44:00,46.4,40.9,29.92,West,275,4.0,6.0,81,0.00,,,0.00,0,WeatherCatV1.21B27,2013-10-22 09:44:00,
2013-10-22 04:45:00,46.4,40.6,29.92,WNW,284,1.0,10.0,80,0.00,,,0.00,0,WeatherCatV1.21B27,2013-10-22 09:45:00,
2013-10-22 04:47:00,46.4,40.9,29.92,WNW,286,5.0,7.0,81,0.00,,,0.00,0,WeatherCatV1.21B27,2013-10-22 09:47:00,
2013-10-22 04:48:00,46.4,40.6,29.92,WNW,286,2.0,7.0,80,0.00,,,0.00,0,WeatherCatV1.21B27,2013-10-22 09:48:00,
2013-10-22 04:49:00,46.4,40.6,29.92,WNW,286,0.0,7.0,80,0.00,,,0.00,0,WeatherCatV1.21B27,2013-10-22 09:49:00,
2013-10-22 04:50:00,46.4,40.6,29.92,WNW,286,0.0,4.0,80,0.00,,,0.00,0,WeatherCatV1.21B27,2013-10-22 09:50:00,
2013-10-22 04:51:00,46.4,40.6,29.92,WNW,286,4.0,4.0,80,0.00,,,0.00,0,WeatherCatV1.21B27,2013-10-22 09:51:00,
2013-10-22 04:53:00,46.3,40.5,29.92,WNW,286,3.0,5.0,80,0.00,,,0.00,0,WeatherCatV1.21B27,2013-10-22 09:53:00,
2013-10-22 04:54:00,46.3,40.5,29.92,WNW,286,3.0,4.0,80,0.00,,,0.00,0,WeatherCatV1.21B27,2013-10-22 09:54:00,
2013-10-22 04:56:00,46.2,40.4,29.92,WNW,286,1.0,3.0,80,0.00,,,0.00,0,WeatherCatV1.21B27,2013-10-22 09:56:00,
2013-10-22 04:58:00,46.1,40.3,29.92,WNW,286,1.0,4.0,80,0.00,,,0.00,0,WeatherCatV1.21B27,2013-10-22 09:58:00,
2013-10-22 04:59:00,46.1,40.6,29.92,WNW,286,0.0,5.0,81,0.00,,,0.00,0,WeatherCatV1.21B27,2013-10-22 09:59:00,
2013-10-22 05:01:00,46.0,40.5,29.92,WNW,287,0.0,5.0,81,0.00,,,0.00,0,WeatherCatV1.21B27,2013-10-22 10:01:00,
2013-10-22 05:03:00,46.0,40.5,29.92,WNW,287,4.0,4.0,81,0.00,,,0.00,0,WeatherCatV1.21B27,2013-10-22 10:03:00,
2013-10-22 05:04:00,45.9,40.4,29.92,WNW,287,1.0,4.0,81,0.00,,,0.00,0,WeatherCatV1.21B27,2013-10-22 10:04:00,
2013-10-22 05:07:00,45.8,40.3,29.92,WNW,287,2.0,5.0,81,0.00,,,0.00,0,WeatherCatV1.21B27,2013-10-22 10:07:00,
2013-10-22 05:08:00,45.7,40.2,29.92,WNW,287,4.0,4.0,81,0.00,,,0.00,0,WeatherCatV1.21B27,2013-10-22 10:08:00,
2013-10-22 05:09:00,45.7,40.2,29.92,WNW,287,2.0,4.0,81,0.00,,,0.00,0,WeatherCatV1.21B27,2013-10-22 10:09:00,
2013-10-22 05:12:00,45.5,40.0,29.92,WNW,287,2.0,4.0,81,0.00,,,0.00,0,WeatherCatV1.21B27,2013-10-22 10:12:00,
2013-10-22 05:14:00,45.4,40.2,29.92,WNW,287,0.0,5.0,82,0.00,,,0.00,0,WeatherCatV1.21B27,2013-10-22 10:14:00,
2013-10-22 05:15:00,45.4,40.2,29.92,WNW,287,0.0,1.0,82,0.00,,,0.00,0,WeatherCatV1.21B27,2013-10-22 10:15:00,
2013-10-22 05:17:00,45.2,40.0,29.92,WNW,287,0.0,4.0,82,0.00,,,0.00,0,WeatherCatV1.21B27,2013-10-22 10:17:00,
2013-10-22 05:19:00,45.1,39.9,29.92,WNW,287,0.0,3.0,82,0.00,,,0.00,0,WeatherCatV1.21B27,2013-10-22 10:19:00,
2013-10-22 05:20:00,45.1,39.9,29.92,WNW,287,1.0,2.0,82,0.00,,,0.00,0,WeatherCatV1.21B27,2013-10-22 10:20:00,
2013-10-22 05:22:00,45.0,39.8,29.92,WNW,287,2.0,5.0,82,0.00,,,0.00,0,WeatherCatV1.21B27,2013-10-22 10:22:00,
2013-10-22 05:24:00,45.0,39.8,29.92,WNW,287,3.0,4.0,82,0.00,,,0.00,0,WeatherCatV1.21B27,2013-10-22 10:24:00,
2013-10-22 05:25:00,45.0,39.8,29.92,WNW,287,3.0,4.0,82,0.00,,,0.00,0,WeatherCatV1.21B27,2013-10-22 10:25:00,
2013-10-22 05:28:00,45.0,39.8,29.92,WNW,287,3.0,4.0,82,0.00,,,0.00,0,WeatherCatV1.21B27,2013-10-22 10:28:00,
2013-10-22 05:29:00,45.0,39.8,29.93,WNW,288,0.0,7.0,82,0.00,,,0.00,0,WeatherCatV1.21B27,2013-10-22 10:29:00,
2013-10-22 05:30:00,45.0,39.8,29.93,WNW,288,3.0,7.0,82,0.00,,,0.00,0,WeatherCatV1.21B27,2013-10-22 10:30:00,
2013-10-22 05:33:00,45.0,40.2,29.93,WNW,289,4.0,4.0,83,0.00,,,0.00,0,WeatherCatV1.21B27,2013-10-22 10:33:00,
2013-10-22 05:35:00,45.0,40.2,29.93,WNW,290,3.0,7.0,83,0.00,,,0.00,0,WeatherCatV1.21B27,2013-10-22 10:35:00,
2013-10-22 05:39:00,44.9,40.0,29.93,WNW,290,4.0,5.0,83,0.00,,,0.00,0,WeatherCatV1.21B27,2013-10-22 10:39:00,
2013-10-22 05:40:00,44.9,40.0,29.93,WNW,290,3.0,5.0,83,0.00,,,0.00,0,WeatherCatV1.21B27,2013-10-22 10:40:00,
2013-10-22 05:44:00,44.7,39.9,29.92,WNW,290,4.0,5.0,83,0.00,,,0.00,0,WeatherCatV1.21B27,2013-10-22 10:44:00,
2013-10-22 05:45:00,44.7,39.9,29.93,WNW,290,2.0,5.0,83,0.00,,,0.00,0,WeatherCatV1.21B27,2013-10-22 10:45:00,
2013-10-22 05:46:00,44.7,39.9,29.93,WNW,290,3.0,4.0,83,0.00,,,0.00,0,WeatherCatV1.21B27,2013-10-22 10:46:00,
2013-10-22 05:50:00,44.7,39.9,29.93,WNW,288,2.0,7.0,83,0.00,,,0.00,0,WeatherCatV1.21B27,2013-10-22 10:50:00,
2013-10-22 05:51:00,44.7,39.9,29.93,WNW,287,3.0,3.0,83,0.00,,,0.00,0,WeatherCatV1.21B27,2013-10-22 10:51:00,
2013-10-22 05:55:00,44.7,39.9,29.93,WNW,289,5.0,6.0,83,0.00,,,0.00,0,WeatherCatV1.21B27,2013-10-22 10:55:00,
2013-10-22 05:56:00,44.7,39.9,29.93,WNW,290,2.0,9.0,83,0.00,,,0.00,0,WeatherCatV1.21B27,2013-10-22 10:56:00,
2013-10-22 06:00:00,44.9,40.0,29.93,WNW,298,9.0,9.0,83,0.00,,,0.00,0,WeatherCatV1.21B27,2013-10-22 11:00:00,
2013-10-22 06:01:00,44.9,39.7,29.93,NW,311,2.0,9.0,82,0.00,,,0.00,0,WeatherCatV1.21B27,2013-10-22 11:01:00,
2013-10-22 06:05:00,45.0,39.8,29.94,WNW,284,4.0,9.0,82,0.00,,,0.00,0,WeatherCatV1.21B27,2013-10-22 11:05:00,
2013-10-22 06:06:00,45.0,39.8,29.94,West,272,6.0,10.0,82,0.00,,,0.00,0,WeatherCatV1.21B27,2013-10-22 11:06:00,
2013-10-22 06:07:00,45.1,39.9,29.94,NNW,345,2.0,10.0,82,0.00,,,0.00,0,WeatherCatV1.21B27,2013-10-22 11:07:00,
2013-10-22 06:10:00,45.2,40.0,29.94,WNW,295,7.0,9.0,82,0.00,,,0.00,0,WeatherCatV1.21B27,2013-10-22 11:10:00,
2013-10-22 06:11:00,45.2,40.0,29.94,WNW,295,3.0,9.0,82,0.00,,,0.00,0,WeatherCatV1.21B27,2013-10-22 11:11:00,
2013-10-22 06:12:00,45.2,39.7,29.94,WNW,294,4.0,9.0,81,0.00,,,0.00,0,WeatherCatV1.21B27,2013-10-22 11:12:00,
2013-10-22 06:16:00,45.1,39.6,29.94,West,278,7.0,7.0,81,0.00,,,0.00,0,WeatherCatV1.21B27,2013-10-22 11:16:00,
2013-10-22 06:17:00,45.0,39.5,29.93,WSW,254,0.0,8.0,81,0.00,,,0.00,0,WeatherCatV1.21B27,2013-10-22 11:17:00,
2013-10-22 06:18:00,45.0,39.8,29.94,West,269,3.0,5.0,82,0.00,,,0.00,0,WeatherCatV1.21B27,2013-10-22 11:18:00,
2013-10-22 06:21:00,45.0,39.8,29.94,WNW,302,3.0,7.0,82,0.00,,,0.00,0,WeatherCatV1.21B27,2013-10-22 11:21:00,
2013-10-22 06:22:00,44.9,39.7,29.94,WNW,302,3.0,7.0,82,0.00,,,0.00,0,WeatherCatV1.21B27,2013-10-22 11:22:00,
2013-10-22 06:24:00,44.9,39.7,29.94,WNW,299,2.0,6.0,82,0.00,,,0.00,0,WeatherCatV1.21B27,2013-10-22 11:24:00,
2013-10-22 06:26:00,44.7,39.5,29.94,WNW,292,2.0,5.0,82,0.00,,,0.00,0,WeatherCatV1.21B27,2013-10-22 11:26:00,
2013-10-22 06:27:00,44.7,39.5,29.93,WNW,293,1.0,4.0,82,0.00,,,0.00,0,WeatherCatV1.21B27,2013-10-22 11:27:00,
2013-10-22 06:29:00,44.7,39.5,29.94,WNW,292,2.0,7.0,82,0.00,,,0.00,0,WeatherCatV1.21B27,2013-10-22 11:29:00,
2013-10-22 06:31:00,44.6,39.5,29.94,WNW,292,0.0,3.0,82,0.00,,,0.00,0,WeatherCatV1.21B27,2013-10-22 11:31:00,
2013-10-22 06:32:00,44.6,39.5,29.94,WNW,292,4.0,5.0,82,0.00,,,0.00,0,WeatherCatV1.21B27,2013-10-22 11:32:00,
2013-10-22 06:35:00,44.6,39.8,29.94,WNW,291,1.0,1.0,83,0.00,,,0.00,0,WeatherCatV1.21B27,2013-10-22 11:35:00,
2013-10-22 06:36:00,44.5,39.7,29.94,WNW,291,3.0,4.0,83,0.00,,,0.00,0,WeatherCatV1.21B27,2013-10-22 11:36:00,
2013-10-22 06:37:00,44.5,39.7,29.94,WNW,291,3.0,4.0,83,0.00,,,0.00,0,WeatherCatV1.21B27,2013-10-22 11:37:00,
2013-10-22 06:40:00,44.5,39.7,29.94,WNW,289,3.0,5.0,83,0.00,,,0.00,0,WeatherCatV1.21B27,2013-10-22 11:40:00,
2013-10-22 06:42:00,44.6,39.8,29.94,WNW,289,5.0,5.0,83,0.00,,,0.00,0,WeatherCatV1.21B27,2013-10-22 11:42:00,
2013-10-22 06:43:00,44.6,39.8,29.94,West,281,2.0,7.0,83,0.00,,,0.00,0,WeatherCatV1.21B27,2013-10-22 11:43:00,
2013-10-22 06:46:00,44.6,39.8,29.94,WNW,283,6.0,6.0,83,0.00,,,0.00,0,WeatherCatV1.21B27,2013-10-22 11:46:00,
2013-10-22 06:47:00,44.7,39.9,29.94,WNW,282,7.0,7.0,83,0.00,,,0.00,0,WeatherCatV1.21B27,2013-10-22 11:47:00,
2013-10-22 06:48:00,44.7,39.9,29.94,WNW,282,2.0,7.0,83,0.00,,,0.00,0,WeatherCatV1.21B27,2013-10-22 11:48:00,
2013-10-22 06:50:00,44.7,39.9,29.94,West,281,1.0,2.0,83,0.00,,,0.00,0,WeatherCatV1.21B27,2013-10-22 11:50:00,
2013-10-22 06:51:00,44.7,39.9,29.94,WNW,283,5.0,5.0,83,0.00,,,0.00,0,WeatherCatV1.21B27,2013-10-22 11:51:00,
2013-10-22 06:52:00,44.7,39.9,29.94,WNW,287,0.0,6.0,83,0.00,,,0.00,0,WeatherCatV1.21B27,2013-10-22 11:52:00,
2013-10-22 06:53:00,44.7,39.9,29.94,WNW,287,0.0,6.0,83,0.00,,,0.00,0,WeatherCatV1.21B27,2013-10-22 11:53:00,
2013-10-22 06:55:00,44.7,39.9,29.94,WNW,286,0.0,5.0,83,0.00,,,0.00,0,WeatherCatV1.21B27,2013-10-22 11:55:00,
2013-10-22 06:56:00,44.7,39.9,29.94,WNW,286,0.0,5.0,83,0.00,,,0.00,0,WeatherCatV1.21B27,2013-10-22 11:56:00,
2013-10-22 06:57:00,44.7,39.9,29.94,WNW,286,0.0,7.0,83,0.00,,,0.00,0,WeatherCatV1.21B27,2013-10-22 11:57:00,
2013-10-22 06:58:00,44.7,39.9,29.94,WNW,286,2.0,7.0,83,0.00,,,0.00,0,WeatherCatV1.21B27,2013-10-22 11:58:00,
2013-10-22 07:00:00,44.7,39.9,29.93,West,269,4.0,7.0,83,0.00,,,0.00,0,WeatherCatV1.21B27,2013-10-22 12:00:00,
2013-10-22 07:02:00,44.7,39.9,29.93,West,271,3.0,7.0,83,0.00,,,0.00,0,WeatherCatV1.21B27,2013-10-22 12:02:00,
2013-10-22 07:03:00,44.7,39.9,29.94,West,271,0.0,5.0,83,0.00,,,0.00,0,WeatherCatV1.21B27,2013-10-22 12:03:00,
2013-10-22 07:04:00,44.7,39.9,29.94,West,271,0.0,3.0,83,0.00,,,0.00,0,WeatherCatV1.21B27,2013-10-22 12:04:00,
2013-10-22 07:05:00,44.7,39.9,29.94,West,271,0.0,5.0,83,0.00,,,0.00,0,WeatherCatV1.21B27,2013-10-22 12:05:00,
2013-10-22 07:07:00,44.6,39.8,29.93,West,271,0.0,3.0,83,0.00,,,0.00,0,WeatherCatV1.21B27,2013-10-22 12:07:00,
2013-10-22 07:08:00,44.6,39.8,29.93,West,271,0.0,1.0,83,0.00,,,0.00,0,WeatherCatV1.21B27,2013-10-22 12:08:00,
2013-10-22 07:09:00,44.6,39.8,29.93,West,271,1.0,1.0,83,0.00,,,0.00,0,WeatherCatV1.21B27,2013-10-22 12:09:00,
2013-10-22 07:11:00,44.5,39.7,29.93,West,271,2.0,3.0,83,0.00,,,0.00,0,WeatherCatV1.21B27,2013-10-22 12:11:00,
2013-10-22 07:12:00,44.4,39.6,29.93,West,272,1.0,4.0,83,0.00,,,0.00,0,WeatherCatV1.21B27,2013-10-22 12:12:00,
2013-10-22 07:13:00,44.3,39.5,29.93,West,272,4.0,4.0,83,0.00,,,0.00,0,WeatherCatV1.21B27,2013-10-22 12:13:00,
2013-10-22 07:14:00,44.3,39.5,29.94,West,272,6.0,6.0,83,0.00,,,0.00,0,WeatherCatV1.21B27,2013-10-22 12:14:00,
2013-10-22 07:16:00,44.3,39.8,29.94,West,275,4.0,4.0,84,0.00,,,0.00,0,WeatherCatV1.21B27,2013-10-22 12:16:00,
2013-10-22 07:17:00,44.3,39.8,29.94,West,277,3.0,6.0,84,0.00,,,0.00,0,WeatherCatV1.21B27,2013-10-22 12:17:00,
2013-10-22 07:18:00,44.2,39.7,29.94,West,278,4.0,6.0,84,0.00,,,0.00,0,WeatherCatV1.21B27,2013-10-22 12:18:00,
2013-10-22 07:19:00,44.3,39.8,29.94,West,278,0.0,6.0,84,0.00,,,0.00,0,WeatherCatV1.21B27,2013-10-22 12:19:00,
2013-10-22 07:21:00,44.2,39.7,29.94,West,278,1.0,1.0,84,0.00,,,0.00,0,WeatherCatV1.21B27,2013-10-22 12:21:00,
2013-10-22 07:23:00,44.2,39.7,29.94,West,277,0.0,4.0,84,0.00,,,0.00,0,WeatherCatV1.21B27,2013-10-22 12:23:00,
2013-10-22 07:24:00,44.2,39.7,29.94,West,277,2.0,3.0,84,0.00,,,0.00,0,WeatherCatV1.21B27,2013-10-22 12:24:00,
2013-10-22 07:25:00,44.1,39.6,29.94,West,277,0.0,3.0,84,0.00,,,0.00,0,WeatherCatV1.21B27,2013-10-22 12:25:00,
2013-10-22 07:27:00,44.1,39.6,29.94,WNW,287,2.0,5.0,84,0.00,,,0.00,0,WeatherCatV1.21B27,2013-10-22 12:27:00,
2013-10-22 07:28:00,44.1,39.6,29.94,WNW,287,3.0,3.0,84,0.00,,,0.00,0,WeatherCatV1.21B27,2013-10-22 12:28:00,
2013-10-22 07:29:00,44.1,39.6,29.94,WNW,287,3.0,5.0,84,0.00,,,0.00,0,WeatherCatV1.21B27,2013-10-22 12:29:00,
2013-10-22 07:30:00,44.1,39.6,29.94,WNW,287,0.0,6.0,84,0.00,,,0.00,0,WeatherCatV1.21B27,2013-10-22 12:30:00,
2013-10-22 07:31:00,44.1,39.6,29.94,WNW,288,4.0,6.0,84,0.00,,,0.00,0,WeatherCatV1.21B27,2013-10-22 12:31:00,
2013-10-22 07:32:00,44.1,39.6,29.94,WNW,287,4.0,5.0,84,0.00,,,0.00,0,WeatherCatV1.21B27,2013-10-22 12:32:00,
2013-10-22 07:33:00,44.1,39.6,29.94,WNW,288,2.0,6.0,84,0.00,,,0.00,0,WeatherCatV1.21B27,2013-10-22 12:33:00,
2013-10-22 07:34:00,44.2,39.7,29.94,WNW,288,2.0,4.0,84,0.00,,,0.00,0,WeatherCatV1.21B27,2013-10-22 12:34:00,
2013-10-22 07:36:00,44.2,39.7,29.93,WNW,289,0.0,3.0,84,0.00,,,0.00,0,WeatherCatV1.21B27,2013-10-22 12:36:00,
2013-10-22 07:37:00,44.1,39.6,29.93,WNW,288,1.0,1.0,84,0.00,,,0.00,0,WeatherCatV1.21B27,2013-10-22 12:37:00,
2013-10-22 07:38:00,44.2,39.4,29.93,WNW,288,0.0,5.0,83,0.00,,,0.00,0,WeatherCatV1.21B27,2013-10-22 12:38:00,
2013-10-22 07:39:00,44.1,39.3,29.93,WNW,288,0.0,0.0,83,0.00,,,0.00,0,WeatherCatV1.21B27,2013-10-22 12:39:00,
2013-10-22 07:41:00,44.1,39.3,29.93,WNW,288,0.0,2.0,83,0.00,,,0.00,0,WeatherCatV1.21B27,2013-10-22 12:41:00,
2013-10-22 07:42:00,44.1,39.3,29.93,WNW,290,2.0,5.0,83,0.00,,,0.00,0,WeatherCatV1.21B27,2013-10-22 12:42:00,
2013-10-22 07:44:00,44.1,39.3,29.93,WNW,290,2.0,5.0,83,0.00,,,0.00,0,WeatherCatV1.21B27,2013-10-22 12:44:00,
2013-10-22 07:45:00,44.1,39.3,29.94,WNW,290,2.0,3.0,83,0.00,,,0.00,0,WeatherCatV1.21B27,2013-10-22 12:45:00,
2013-10-22 07:46:00,44.1,39.3,29.94,WNW,290,1.0,3.0,83,0.00,,,0.00,0,WeatherCatV1.21B27,2013-10-22 12:46:00,
2013-10-22 07:47:00,44.1,39.3,29.94,WNW,289,0.0,3.0,83,0.00,,,0.00,0,WeatherCatV1.21B27,2013-10-22 12:47:00,
2013-10-22 07:49:00,44.1,39.3,29.93,WNW,290,1.0,2.0,83,0.00,,,0.00,0,WeatherCatV1.21B27,2013-10-22 12:49:00,
2013-10-22 07:50:00,44.1,39.3,29.94,WNW,290,1.0,6.0,83,0.00,,,0.00,0,WeatherCatV1.21B27,2013-10-22 12:50:00,
2013-10-22 07:51:00,44.1,39.3,29.94,WNW,287,2.0,7.0,83,0.00,,,0.00,5,WeatherCatV1.21B27,2013-10-22 12:51:00,
2013-10-22 07:52:00,44.1,39.3,29.94,WNW,286,0.0,7.0,83,0.00,,,0.00,5,WeatherCatV1.21B27,2013-10-22 12:52:00,
2013-10-22 07:54:00,44.2,39.4,29.94,WNW,287,0.0,4.0,83,0.00,,,0.00,5,WeatherCatV1.21B27,2013-10-22 12:54:00,
2013-10-22 07:55:00,44.2,39.4,29.94,WNW,287,2.0,4.0,83,0.00,,,0.00,5,WeatherCatV1.21B27,2013-10-22 12:55:00,
2013-10-22 07:56:00,44.2,39.4,29.94,WNW,287,3.0,6.0,83,0.00,,,0.00,5,WeatherCatV1.21B27,2013-10-22 12:56:00,
2013-10-22 07:57:00,44.2,39.4,29.93,WNW,287,3.0,6.0,83,0.00,,,0.00,5,WeatherCatV1.21B27,2013-10-22 12:57:00,
2013-10-22 07:58:00,44.2,39.4,29.93,WNW,288,7.0,7.0,83,0.00,,,0.00,7,WeatherCatV1.21B27,2013-10-22 12:58:00,
2013-10-22 07:59:00,44.2,39.4,29.94,WNW,288,4.0,9.0,83,0.00,,,0.00,7,WeatherCatV1.21B27,2013-10-22 12:59:00,
2013-10-22 08:00:00,44.2,39.4,29.94,WNW,287,3.0,9.0,83,0.00,,,0.00,9,WeatherCatV1.21B27,2013-10-22 13:00:00,
2013-10-22 08:01:00,44.2,39.4,29.94,WNW,288,0.0,2.0,83,0.00,,,0.00,11,WeatherCatV1.21B27,2013-10-22 13:01:00,
2013-10-22 08:02:00,44.2,39.4,29.94,WNW,288,0.0,0.0,83,0.00,,,0.00,11,WeatherCatV1.21B27,2013-10-22 13:02:00,
2013-10-22 08:03:00,44.2,39.4,29.94,WNW,288,3.0,4.0,83,0.00,,,0.00,11,WeatherCatV1.21B27,2013-10-22 13:03:00,
2013-10-22 08:04:00,44.2,39.4,29.95,WNW,290,3.0,5.0,83,0.00,,,0.00,11,WeatherCatV1.21B27,2013-10-22 13:04:00,
2013-10-22 08:05:00,44.2,39.4,29.95,WNW,290,0.0,5.0,83,0.00,,,0.00,11,WeatherCatV1.21B27,2013-10-22 13:05:00,
2013-10-22 08:06:00,44.2,39.4,29.95,WNW,290,0.0,5.0,83,0.00,,,0.00,11,WeatherCatV1.21B27,2013-10-22 13:06:00,
2013-10-22 08:07:00,44.3,39.5,29.95,WNW,293,4.0,9.0,83,0.00,,,0.00,12,WeatherCatV1.21B27,2013-10-22 13:07:00,
2013-10-22 08:08:00,44.3,39.5,29.95,WNW,292,3.0,6.0,83,0.00,,,0.00,12,WeatherCatV1.21B27,2013-10-22 13:08:00,
2013-10-22 08:09:00,44.4,39.6,29.95,West,275,4.0,10.0,83,0.00,,,0.00,12,WeatherCatV1.21B27,2013-10-22 13:09:00,
2013-10-22 08:10:00,44.6,39.8,29.95,West,273,1.0,10.0,83,0.00,,,0.00,14,WeatherCatV1.21B27,2013-10-22 13:10:00,
2013-10-22 08:11:00,44.6,39.8,29.95,West,271,6.0,10.0,83,0.00,,,0.00,14,WeatherCatV1.21B27,2013-10-22 13:11:00,
2013-10-22 08:12:00,44.7,39.9,29.95,West,272,3.0,6.0,83,0.00,,,0.00,16,WeatherCatV1.21B27,2013-10-22 13:12:00,
2013-10-22 08:14:00,44.9,40.0,29.95,West,272,6.0,6.0,83,0.00,,,0.00,19,WeatherCatV1.21B27,2013-10-22 13:14:00,
2013-10-22 08:16:00,45.1,39.9,29.96,NNW,327,4.0,12.0,82,0.00,,,0.00,19,WeatherCatV1.21B27,2013-10-22 13:16:00,
2013-10-22 08:17:00,45.4,40.2,29.95,WSW,242,7.0,12.0,82,0.00,,,0.00,19,WeatherCatV1.21B27,2013-10-22 13:17:00,
2013-10-22 08:18:00,45.5,40.3,29.95,West,277,4.0,10.0,82,0.00,,,0.00,19,WeatherCatV1.21B27,2013-10-22 13:18:00,
2013-10-22 08:19:00,45.6,40.4,29.96,NW,318,4.0,7.0,82,0.00,,,0.00,21,WeatherCatV1.21B27,2013-10-22 13:19:00,
2013-10-22 08:21:00,45.9,40.4,29.96,NW,326,5.0,12.0,81,0.00,,,0.00,23,WeatherCatV1.21B27,2013-10-22 13:21:00,
2013-10-22 08:22:00,46.0,40.5,29.95,WNW,296,4.0,12.0,81,0.00,,,0.00,23,WeatherCatV1.21B27,2013-10-22 13:22:00,
2013-10-22 08:23:00,46.1,40.6,29.96,West,279,11.0,11.0,81,0.00,,,0.00,25,WeatherCatV1.21B27,2013-10-22 13:23:00,
2013-10-22 08:24:00,46.2,40.7,29.96,NW,306,5.0,11.0,81,0.00,,,0.00,26,WeatherCatV1.21B27,2013-10-22 13:24:00,
2013-10-22 08:25:00,46.2,40.7,29.96,WNW,298,3.0,11.0,81,0.00,,,0.00,26,WeatherCatV1.21B27,2013-10-22 13:25:00,
2013-10-22 08:26:00,46.3,40.5,29.96,NNW,327,1.0,6.0,80,0.00,,,0.00,26,WeatherCatV1.21B27,2013-10-22 13:26:00,
2013-10-22 08:27:00,46.3,40.5,29.96,NW,320,5.0,6.0,80,0.00,,,0.00,28,WeatherCatV1.21B27,2013-10-22 13:27:00,
2013-10-22 08:28:00,46.3,40.5,29.96,NW,320,2.0,6.0,80,0.00,,,0.00,28,WeatherCatV1.21B27,2013-10-22 13:28:00,
2013-10-22 08:30:00,46.4,40.6,29.96,NW,326,1.0,7.0,80,0.00,,,0.00,30,WeatherCatV1.21B27,2013-10-22 13:30:00,
2013-10-22 08:31:00,46.4,40.6,29.96,NW,321,3.0,6.0,80,0.00,,,0.00,35,WeatherCatV1.21B27,2013-10-22 13:31:00,
2013-10-22 08:32:00,46.4,40.6,29.96,NW,306,4.0,6.0,80,0.00,,,0.00,35,WeatherCatV1.21B27,2013-10-22 13:32:00,
2013-10-22 08:33:00,46.4,40.6,29.96,NW,326,11.0,14.0,80,0.00,,,0.00,37,WeatherCatV1.21B27,2013-10-22 13:33:00,
2013-10-22 08:35:00,46.5,40.7,29.96,WNW,286,5.0,11.0,80,0.00,,,0.00,39,WeatherCatV1.21B27,2013-10-22 13:35:00,
2013-10-22 08:36:00,46.5,40.7,29.96,WNW,298,5.0,16.0,80,0.00,,,0.00,39,WeatherCatV1.21B27,2013-10-22 13:36:00,
2013-10-22 08:37:00,46.6,40.8,29.96,West,274,7.0,16.0,80,0.00,,,0.00,40,WeatherCatV1.21B27,2013-10-22 13:37:00,
2013-10-22 08:38:00,46.6,40.4,29.96,NNW,342,6.0,11.0,79,0.00,,,0.00,40,WeatherCatV1.21B27,2013-10-22 13:38:00,
2013-10-22 08:40:00,46.6,40.4,29.96,WNW,294,4.0,14.0,79,0.00,,,0.00,42,WeatherCatV1.21B27,2013-10-22 13:40:00,
2013-10-22 08:41:00,46.7,40.5,29.96,NW,311,4.0,14.0,79,0.00,,,0.00,44,WeatherCatV1.21B27,2013-10-22 13:41:00,
2013-10-22 08:42:00,46.7,40.5,29.96,NW,316,4.0,5.0,79,0.00,,,0.00,46,WeatherCatV1.21B27,2013-10-22 13:42:00,
2013-10-22 08:43:00,46.7,40.5,29.96,West,267,2.0,7.0,79,0.00,,,0.00,46,WeatherCatV1.21B27,2013-10-22 13:43:00,
2013-10-22 08:45:00,46.7,40.5,29.96,West,267,0.0,3.0,79,0.00,,,0.00,49,WeatherCatV1.21B27,2013-10-22 13:45:00,
2013-10-22 08:46:00,46.7,40.5,29.97,NW,315,5.0,10.0,79,0.00,,,0.00,53,WeatherCatV1.21B27,2013-10-22 13:46:00,
2013-10-22 08:47:00,46.7,40.5,29.97,NNW,336,2.0,10.0,79,0.00,,,0.00,54,WeatherCatV1.21B27,2013-10-22 13:47:00,
2013-10-22 08:48:00,46.7,40.5,29.96,WNW,302,3.0,10.0,79,0.00,,,0.00,56,WeatherCatV1.21B27,2013-10-22 13:48:00,
2013-10-22 08:50:00,46.7,40.5,29.96,NW,307,4.0,7.0,79,0.00,,,0.00,54,WeatherCatV1.21B27,2013-10-22 13:50:00,
2013-10-22 08:52:00,46.7,40.5,29.97,NW,311,5.0,14.0,79,0.00,,,0.00,60,WeatherCatV1.21B27,2013-10-22 13:52:00,
2013-10-22 08:53:00,46.7,40.5,29.97,WNW,282,0.0,14.0,79,0.00,,,0.00,67,WeatherCatV1.21B27,2013-10-22 13:53:00,
2013-10-22 08:54:00,46.7,40.5,29.97,NNE,12,5.0,10.0,79,0.00,,,0.00,72,WeatherCatV1.21B27,2013-10-22 13:54:00,
2013-10-22 08:55:00,46.7,40.5,29.97,NNW,345,4.0,10.0,79,0.00,,,0.00,72,WeatherCatV1.21B27,2013-10-22 13:55:00,
2013-10-22 08:57:00,46.7,40.9,29.97,NW,307,2.0,5.0,80,0.00,,,0.00,69,WeatherCatV1.21B27,2013-10-22 13:57:00,
2013-10-22 08:58:00,46.7,40.9,29.97,NW,306,2.0,5.0,80,0.00,,,0.00,65,WeatherCatV1.21B27,2013-10-22 13:58:00,
2013-10-22 08:59:00,46.7,40.9,29.97,NW,310,6.0,6.0,80,0.00,,,0.00,63,WeatherCatV1.21B27,2013-10-22 13:59:00,
2013-10-22 09:00:00,46.7,40.9,29.97,NW,311,5.0,7.0,80,0.00,,,0.00,63,WeatherCatV1.21B27,2013-10-22 14:00:00,
2013-10-22 09:02:00,46.7,40.9,29.97,NW,309,1.0,10.0,80,0.00,,,0.00,63,WeatherCatV1.21B27,2013-10-22 14:02:00,
2013-10-22 09:03:00,46.7,40.9,29.97,NNW,348,7.0,11.0,80,0.00,,,0.00,63,WeatherCatV1.21B27,2013-10-22 14:03:00,
2013-10-22 09:04:00,46.7,40.9,29.97,NW,309,5.0,12.0,80,0.00,,,0.00,69,WeatherCatV1.21B27,2013-10-22 14:04:00,
2013-10-22 09:05:00,46.7,40.9,29.97,NW,310,5.0,12.0,80,0.00,,,0.00,74,WeatherCatV1.21B27,2013-10-22 14:05:00,
2013-10-22 09:08:00,46.8,41.0,29.97,NW,308,4.0,13.0,80,0.00,,,0.00,77,WeatherCatV1.21B27,2013-10-22 14:08:00,
2013-10-22 09:09:00,46.8,41.0,29.97,NW,313,3.0,7.0,80,0.00,,,0.00,81,WeatherCatV1.21B27,2013-10-22 14:09:00,
2013-10-22 09:10:00,46.8,41.0,29.97,NW,313,2.0,4.0,80,0.00,,,0.00,81,WeatherCatV1.21B27,2013-10-22 14:10:00,
2013-10-22 09:11:00,46.8,41.0,29.97,NNW,336,13.0,13.0,80,0.00,,,0.00,79,WeatherCatV1.21B27,2013-10-22 14:11:00,
2013-10-22 09:13:00,46.9,40.7,29.97,NNW,333,5.0,11.0,79,0.00,,,0.00,84,WeatherCatV1.21B27,2013-10-22 14:13:00,
2013-10-22 09:14:00,46.9,41.1,29.97,NW,312,1.0,11.0,80,0.00,,,0.00,84,WeatherCatV1.21B27,2013-10-22 14:14:00,
2013-10-22 09:15:00,46.9,41.1,29.97,NNW,333,5.0,11.0,80,0.00,,,0.00,91,WeatherCatV1.21B27,2013-10-22 14:15:00,
2013-10-22 09:16:00,47.0,41.2,29.97,NNW,331,15.0,15.0,80,0.00,,,0.00,97,WeatherCatV1.21B27,2013-10-22 14:16:00,
2013-10-22 09:18:00,47.0,40.8,29.97,NW,323,1.0,16.0,79,0.00,,,0.00,109,WeatherCatV1.21B27,2013-10-22 14:18:00,
2013-10-22 09:19:00,47.1,40.9,29.97,NNW,347,4.0,7.0,79,0.00,,,0.00,111,WeatherCatV1.21B27,2013-10-22 14:19:00,
2013-10-22 09:20:00,47.1,41.2,29.97,NW,312,3.0,7.0,80,0.00,,,0.00,114,WeatherCatV1.21B27,2013-10-22 14:20:00,
2013-10-22 09:21:00,47.1,41.2,29.97,NW,318,1.0,11.0,80,0.00,,,0.00,125,WeatherCatV1.21B27,2013-10-22 14:21:00,
2013-10-22 09:23:00,47.2,41.0,29.98,NW,323,11.0,11.0,79,0.00,,,0.00,153,WeatherCatV1.21B27,2013-10-22 14:23:00,
2013-10-22 09:24:00,47.3,41.1,29.98,NW,325,8.0,9.0,79,0.00,,,0.00,118,WeatherCatV1.21B27,2013-10-22 14:24:00,
2013-10-22 09:25:00,47.3,41.1,29.98,NW,322,4.0,9.0,79,0.00,,,0.00,114,WeatherCatV1.21B27,2013-10-22 14:25:00,
2013-10-22 09:26:00,47.3,41.1,29.98,NNW,328,7.0,15.0,79,0.00,,,0.00,104,WeatherCatV1.21B27,2013-10-22 14:26:00,
2013-10-22 09:28:00,47.4,41.2,29.98,NW,313,4.0,11.0,79,0.00,,,0.00,127,WeatherCatV1.21B27,2013-10-22 14:28:00,
2013-10-22 09:29:00,47.4,41.2,29.98,NNW,345,4.0,11.0,79,0.00,,,0.00,176,WeatherCatV1.21B27,2013-10-22 14:29:00,
2013-10-22 09:30:00,47.5,41.3,29.98,NW,307,4.0,12.0,79,0.00,,,0.00,176,WeatherCatV1.21B27,2013-10-22 14:30:00,
2013-10-22 09:31:00,47.5,41.3,29.98,NNW,336,4.0,12.0,79,0.00,,,0.00,232,WeatherCatV1.21B27,2013-10-22 14:31:00,
2013-10-22 09:33:00,47.7,41.5,29.98,WNW,290,12.0,12.0,79,0.00,,,0.00,195,WeatherCatV1.21B27,2013-10-22 14:33:00,
2013-10-22 09:35:00,47.8,41.3,29.98,NW,309,5.0,12.0,78,0.00,,,0.00,336,WeatherCatV1.21B27,2013-10-22 14:35:00,
2013-10-22 09:36:00,47.9,41.4,29.99,WNW,302,4.0,12.0,78,0.00,,,0.00,149,WeatherCatV1.21B27,2013-10-22 14:36:00,
2013-10-22 09:38:00,48.1,41.6,29.98,NNW,332,5.0,11.0,78,0.00,,,0.00,139,WeatherCatV1.21B27,2013-10-22 14:38:00,
2013-10-22 09:39:00,48.1,41.6,29.99,NNW,334,3.0,11.0,78,0.00,,,0.00,146,WeatherCatV1.21B27,2013-10-22 14:39:00,
2013-10-22 09:40:00,48.2,41.3,29.98,NNW,334,3.0,10.0,77,0.00,,,0.00,153,WeatherCatV1.21B27,2013-10-22 14:40:00,
2013-10-22 09:41:00,48.2,41.3,29.98,NNW,329,4.0,13.0,77,0.00,,,0.00,160,WeatherCatV1.21B27,2013-10-22 14:41:00,
2013-10-22 09:44:00,48.3,41.4,29.98,NW,326,5.0,11.0,77,0.00,,,0.00,200,WeatherCatV1.21B27,2013-10-22 14:44:00,
2013-10-22 09:45:00,48.3,41.4,29.98,NW,322,2.0,5.0,77,0.00,,,0.00,197,WeatherCatV1.21B27,2013-10-22 14:45:00,
2013-10-22 09:46:00,48.4,41.5,29.99,NW,322,4.0,5.0,77,0.00,,,0.00,197,WeatherCatV1.21B27,2013-10-22 14:46:00,
2013-10-22 09:49:00,48.6,41.7,29.99,NW,315,4.0,15.0,77,0.00,,,0.00,211,WeatherCatV1.21B27,2013-10-22 14:49:00,
2013-10-22 09:50:00,48.7,41.8,29.99,NNW,339,8.0,11.0,77,0.00,,,0.00,188,WeatherCatV1.21B27,2013-10-22 14:50:00,
2013-10-22 09:52:00,48.8,41.9,29.99,NNW,341,2.0,12.0,77,0.00,,,0.00,169,WeatherCatV1.21B27,2013-10-22 14:52:00,
2013-10-22 09:54:00,48.8,41.6,29.99,NW,309,10.0,15.0,76,0.00,,,0.00,146,WeatherCatV1.21B27,2013-10-22 14:54:00,
2013-10-22 09:55:00,48.8,41.6,29.99,NW,317,5.0,15.0,76,0.00,,,0.00,141,WeatherCatV1.21B27,2013-10-22 14:55:00,
2013-10-22 09:56:00,48.8,41.6,29.99,NNW,329,10.0,14.0,76,0.00,,,0.00,137,WeatherCatV1.21B27,2013-10-22 14:56:00,
2013-10-22 09:57:00,48.8,41.6,29.99,NW,310,4.0,12.0,76,0.00,,,0.00,135,WeatherCatV1.21B27,2013-10-22 14:57:00,
2013-10-22 10:00:00,48.9,41.7,29.99,NW,309,3.0,12.0,76,0.00,,,0.00,153,WeatherCatV1.21B27,2013-10-22 15:00:00,
2013-10-22 10:01:00,49.0,41.8,29.99,NW,317,12.0,18.0,76,0.00,,,0.00,142,WeatherCatV1.21B27,2013-10-22 15:01:00,
2013-10-22 10:02:00,49.0,41.4,29.99,WNW,292,5.0,18.0,75,0.00,,,0.00,142,WeatherCatV1.21B27,2013-10-22 15:02:00,
2013-10-22 10:03:00,49.0,41.4,29.99,NW,313,3.0,12.0,75,0.00,,,0.00,139,WeatherCatV1.21B27,2013-10-22 15:03:00,
2013-10-22 10:05:00,49.0,41.8,29.99,NW,321,3.0,7.0,76,0.00,,,0.00,141,WeatherCatV1.21B27,2013-10-22 15:05:00,
2013-10-22 10:06:00,49.0,41.4,29.99,NW,307,7.0,13.0,75,0.00,,,0.00,148,WeatherCatV1.21B27,2013-10-22 15:06:00,
2013-10-22 10:07:00,49.1,41.5,29.99,NNW,329,5.0,11.0,75,0.00,,,0.00,162,WeatherCatV1.21B27,2013-10-22 15:07:00,
2013-10-22 10:08:00,49.1,41.5,29.99,NNW,340,6.0,9.0,75,0.00,,,0.00,162,WeatherCatV1.21B27,2013-10-22 15:08:00,
2013-10-22 10:10:00,49.1,41.5,29.99,NNW,348,4.0,11.0,75,0.00,,,0.00,174,WeatherCatV1.21B27,2013-10-22 15:10:00,
2013-10-22 10:11:00,49.1,41.5,29.99,NW,317,12.0,12.0,75,0.00,,,0.00,185,WeatherCatV1.21B27,2013-10-22 15:11:00,
2013-10-22 10:12:00,49.2,41.6,29.99,North,350,4.0,12.0,75,0.00,,,0.00,192,WeatherCatV1.21B27,2013-10-22 15:12:00,
2013-10-22 10:13:00,49.2,42.0,29.99,NNW,337,7.0,7.0,76,0.00,,,0.00,172,WeatherCatV1.21B27,2013-10-22 15:13:00,
2013-10-22 10:15:00,49.2,41.6,29.99,NW,321,3.0,15.0,75,0.00,,,0.00,167,WeatherCatV1.21B27,2013-10-22 15:15:00,
2013-10-22 10:16:00,49.2,41.6,29.99,WNW,288,10.0,15.0,75,0.00,,,0.00,167,WeatherCatV1.21B27,2013-10-22 15:16:00,
2013-10-22 10:17:00,49.2,41.6,29.99,North,11,3.0,11.0,75,0.00,,,0.00,165,WeatherCatV1.21B27,2013-10-22 15:17:00,
2013-10-22 10:18:00,49.2,41.6,29.99,North,355,5.0,6.0,75,0.00,,,0.00,165,WeatherCatV1.21B27,2013-10-22 15:18:00,
2013-10-22 10:21:00,49.4,41.8,29.99,NW,306,15.0,15.0,75,0.00,,,0.00,236,WeatherCatV1.21B27,2013-10-22 15:21:00,
2013-10-22 10:22:00,49.4,41.8,29.99,North,355,3.0,15.0,75,0.00,,,0.00,232,WeatherCatV1.21B27,2013-10-22 15:22:00,
2013-10-22 10:23:00,49.4,41.8,29.99,NNW,340,3.0,10.0,75,0.00,,,0.00,234,WeatherCatV1.21B27,2013-10-22 15:23:00,
2013-10-22 10:26:00,49.6,41.7,29.99,North,355,11.0,13.0,74,0.00,,,0.00,234,WeatherCatV1.21B27,2013-10-22 15:26:00,
2013-10-22 10:28:00,49.7,42.1,29.99,NW,318,5.0,13.0,75,0.00,,,0.00,294,WeatherCatV1.21B27,2013-10-22 15:28:00,
2013-10-22 10:29:00,49.7,42.1,29.99,North,9,11.0,12.0,75,0.00,,,0.00,258,WeatherCatV1.21B27,2013-10-22 15:29:00,
2013-10-22 10:31:00,49.9,42.0,29.99,WNW,298,5.0,17.0,74,0.00,,,0.00,221,WeatherCatV1.21B27,2013-10-22 15:31:00,
2013-10-22 10:32:00,49.9,41.6,29.99,NW,311,5.0,12.0,73,0.00,,,0.00,221,WeatherCatV1.21B27,2013-10-22 15:32:00,
2013-10-22 10:33:00,49.9,41.6,29.99,NNE,18,6.0,13.0,73,0.00,,,0.00,207,WeatherCatV1.21B27,2013-10-22 15:33:00,
2013-10-22 10:34:00,49.9,41.6,29.99,NNW,327,5.0,13.0,73,0.00,,,0.00,178,WeatherCatV1.21B27,2013-10-22 15:34:00,
2013-10-22 10:36:00,50.0,42.0,30.00,NNW,340,4.0,13.0,74,0.00,,,0.00,151,WeatherCatV1.21B27,2013-10-22 15:36:00,
2013-10-22 10:37:00,50.0,42.0,30.00,NNW,331,5.0,13.0,74,0.00,,,0.00,148,WeatherCatV1.21B27,2013-10-22 15:37:00,
2013-10-22 10:38:00,50.0,42.0,30.00,WNW,290,1.0,11.0,74,0.00,,,0.00,148,WeatherCatV1.21B27,2013-10-22 15:38:00,
2013-10-22 10:39:00,50.0,42.0,29.99,WNW,290,0.0,4.0,74,0.00,,,0.00,497,WeatherCatV1.21B27,2013-10-22 15:39:00,
2013-10-22 10:42:00,50.4,42.4,30.00,NW,323,5.0,7.0,74,0.00,,,0.00,571,WeatherCatV1.21B27,2013-10-22 15:42:00,
2013-10-22 10:43:00,50.6,42.6,30.00,WNW,288,7.0,9.0,74,0.00,,,0.00,415,WeatherCatV1.21B27,2013-10-22 15:43:00,
2013-10-22 10:44:00,50.8,42.5,30.00,WNW,287,5.0,9.0,73,0.00,,,0.00,383,WeatherCatV1.21B27,2013-10-22 15:44:00,
2013-10-22 10:47:00,51.0,42.3,29.99,NW,326,7.0,13.0,72,0.00,,,0.00,378,WeatherCatV1.21B27,2013-10-22 15:47:00,
2013-10-22 10:48:00,51.0,42.3,29.99,WNW,298,12.0,12.0,72,0.00,,,0.00,378,WeatherCatV1.21B27,2013-10-22 15:48:00,
2013-10-22 10:49:00,51.1,42.4,29.99,NW,316,5.0,12.0,72,0.00,,,0.00,378,WeatherCatV1.21B27,2013-10-22 15:49:00,
2013-10-22 10:52:00,51.4,42.7,29.99,NW,323,2.0,15.0,72,0.00,,,0.00,512,WeatherCatV1.21B27,2013-10-22 15:52:00,
2013-10-22 10:54:00,51.6,42.5,29.99,North,0,9.0,14.0,71,0.00,,,0.00,610,WeatherCatV1.21B27,2013-10-22 15:54:00,
2013-10-22 10:55:00,51.7,42.6,29.99,NW,326,9.0,13.0,71,0.00,,,0.00,610,WeatherCatV1.21B27,2013-10-22 15:55:00,
2013-10-22 10:57:00,51.9,42.4,29.99,NW,311,10.0,13.0,70,0.00,,,0.00,468,WeatherCatV1.21B27,2013-10-22 15:57:00,
2013-10-22 10:58:00,51.9,42.4,29.99,NW,309,5.0,13.0,70,0.00,,,0.00,468,WeatherCatV1.21B27,2013-10-22 15:58:00,
2013-10-22 10:59:00,51.9,42.4,29.99,NW,322,3.0,15.0,70,0.00,,,0.00,594,WeatherCatV1.21B27,2013-10-22 15:59:00,
2013-10-22 11:00:00,51.9,42.4,29.99,WNW,285,3.0,15.0,70,0.00,,,0.00,594,WeatherCatV1.21B27,2013-10-22 16:00:00,
2013-10-22 11:02:00,52.1,42.6,29.99,North,355,11.0,15.0,70,0.00,,,0.00,693,WeatherCatV1.21B27,2013-10-22 16:02:00,
2013-10-22 11:03:00,52.1,42.6,29.99,NNW,331,6.0,15.0,70,0.00,,,0.00,693,WeatherCatV1.21B27,2013-10-22 16:03:00,
2013-10-22 11:04:00,52.2,42.3,29.99,NNW,337,6.0,11.0,69,0.00,,,0.00,229,WeatherCatV1.21B27,2013-10-22 16:04:00,
2013-10-22 11:05:00,52.1,42.2,29.99,North,350,5.0,11.0,69,0.00,,,0.00,234,WeatherCatV1.21B27,2013-10-22 16:05:00,
2013-10-22 11:07:00,52.1,42.2,29.99,WNW,290,6.0,9.0,69,0.00,,,0.00,287,WeatherCatV1.21B27,2013-10-22 16:07:00,
2013-10-22 11:08:00,52.1,42.2,29.99,NE,34,7.0,13.0,69,0.00,,,0.00,287,WeatherCatV1.21B27,2013-10-22 16:08:00,
2013-10-22 11:09:00,52.0,41.8,29.99,NW,323,11.0,13.0,68,0.00,,,0.00,287,WeatherCatV1.21B27,2013-10-22 16:09:00,
2013-10-22 11:10:00,52.0,41.8,29.99,NW,311,5.0,13.0,68,0.00,,,0.00,330,WeatherCatV1.21B27,2013-10-22 16:10:00,
2013-10-22 11:13:00,51.9,41.3,29.99,NW,318,10.0,16.0,67,0.00,,,0.00,311,WeatherCatV1.21B27,2013-10-22 16:13:00,
2013-10-22 11:14:00,51.9,41.3,29.99,NW,311,6.0,18.0,67,0.00,,,0.00,390,WeatherCatV1.21B27,2013-10-22 16:14:00,
2013-10-22 11:15:00,51.9,41.3,29.99,North,355,9.0,18.0,67,0.00,,,0.00,390,WeatherCatV1.21B27,2013-10-22 16:15:00,
2013-10-22 11:18:00,51.7,41.5,29.99,NW,315,3.0,17.0,68,0.00,,,0.00,274,WeatherCatV1.21B27,2013-10-22 16:18:00,
2013-10-22 11:19:00,51.7,41.5,29.99,NW,313,15.0,15.0,68,0.00,,,0.00,302,WeatherCatV1.21B27,2013-10-22 16:19:00,
2013-10-22 11:20:00,51.7,41.5,29.99,NW,313,12.0,16.0,68,0.00,,,0.00,302,WeatherCatV1.21B27,2013-10-22 16:20:00,
2013-10-22 11:21:00,51.7,41.5,29.99,WNW,303,3.0,16.0,68,0.00,,,0.00,325,WeatherCatV1.21B27,2013-10-22 16:21:00,
2013-10-22 11:23:00,51.7,41.9,29.99,NW,315,6.0,13.0,69,0.00,,,0.00,346,WeatherCatV1.21B27,2013-10-22 16:23:00,
2013-10-22 11:24:00,51.8,42.0,29.99,NNW,345,5.0,11.0,69,0.00,,,0.00,202,WeatherCatV1.21B27,2013-10-22 16:24:00,
2013-10-22 11:25:00,51.8,42.0,29.99,NNW,327,2.0,11.0,69,0.00,,,0.00,179,WeatherCatV1.21B27,2013-10-22 16:25:00,
2013-10-22 11:26:00,51.8,42.0,29.99,NNW,334,2.0,8.0,69,0.00,,,0.00,158,WeatherCatV1.21B27,2013-10-22 16:26:00,
2013-10-22 11:28:00,51.8,42.0,30.00,West,265,4.0,18.0,69,0.00,,,0.00,172,WeatherCatV1.21B27,2013-10-22 16:28:00,
2013-10-22 11:29:00,51.8,42.0,30.00,WNW,303,5.0,18.0,69,0.00,,,0.00,181,WeatherCatV1.21B27,2013-10-22 16:29:00,
2013-10-22 11:30:00,51.8,42.0,30.00,NNW,341,6.0,13.0,69,0.00,,,0.00,181,WeatherCatV1.21B27,2013-10-22 16:30:00,
2013-10-22 11:31:00,51.7,41.5,30.00,NW,322,5.0,16.0,68,0.00,,,0.00,195,WeatherCatV1.21B27,2013-10-22 16:31:00,
2013-10-22 11:33:00,51.6,41.4,30.00,NNW,338,5.0,13.0,68,0.00,,,0.00,183,WeatherCatV1.21B27,2013-10-22 16:33:00,
2013-10-22 11:34:00,51.6,41.4,30.00,NW,313,14.0,14.0,68,0.00,,,0.00,185,WeatherCatV1.21B27,2013-10-22 16:34:00,
2013-10-22 11:35:00,51.5,41.3,30.00,WSW,254,4.0,14.0,68,0.00,,,0.00,185,WeatherCatV1.21B27,2013-10-22 16:35:00,
2013-10-22 11:37:00,51.4,41.2,30.00,WNW,290,10.0,18.0,68,0.00,,,0.00,169,WeatherCatV1.21B27,2013-10-22 16:37:00,
2013-10-22 11:38:00,51.4,41.2,30.00,NW,307,7.0,14.0,68,0.00,,,0.00,107,WeatherCatV1.21B27,2013-10-22 16:38:00,
2013-10-22 11:39:00,51.3,41.1,30.00,NW,326,15.0,15.0,68,0.00,,,0.00,97,WeatherCatV1.21B27,2013-10-22 16:39:00,
2013-10-22 11:40:00,51.2,41.0,30.00,NNW,336,2.0,15.0,68,0.00,,,0.00,114,WeatherCatV1.21B27,2013-10-22 16:40:00,
2013-10-22 11:42:00,51.2,41.0,30.00,NNW,327,5.0,13.0,68,0.00,,,0.00,155,WeatherCatV1.21B27,2013-10-22 16:42:00,
2013-10-22 11:44:00,51.2,41.4,30.00,NNE,20,3.0,13.0,69,0.00,,,0.00,125,WeatherCatV1.21B27,2013-10-22 16:44:00,
2013-10-22 11:45:00,51.2,41.4,30.00,NW,313,10.0,13.0,69,0.00,,,0.00,113,WeatherCatV1.21B27,2013-10-22 16:45:00,
2013-10-22 11:46:00,51.2,41.4,30.00,North,5,5.0,13.0,69,0.00,,,0.00,130,WeatherCatV1.21B27,2013-10-22 16:46:00,
2013-10-22 11:47:00,51.2,41.4,30.00,NNW,329,6.0,13.0,69,0.00,,,0.00,146,WeatherCatV1.21B27,2013-10-22 16:47:00,
2013-10-22 11:49:00,51.2,41.4,30.00,North,350,1.0,6.0,69,0.00,,,0.00,202,WeatherCatV1.21B27,2013-10-22 16:49:00,
2013-10-22 11:50:00,51.2,41.4,30.00,North,350,0.0,6.0,69,0.00,,,0.00,229,WeatherCatV1.21B27,2013-10-22 16:50:00,
2013-10-22 11:51:00,51.2,41.4,30.00,NNW,348,4.0,4.0,69,0.00,,,0.00,232,WeatherCatV1.21B27,2013-10-22 16:51:00,
2013-10-22 11:52:00,51.3,41.5,30.00,NNW,337,11.0,11.0,69,0.00,,,0.00,232,WeatherCatV1.21B27,2013-10-22 16:52:00,
2013-10-22 11:54:00,51.4,41.6,30.01,NW,320,6.0,9.0,69,0.00,,,0.00,223,WeatherCatV1.21B27,2013-10-22 16:54:00,
2013-10-22 11:55:00,51.4,41.6,30.00,West,270,4.0,9.0,69,0.00,,,0.00,234,WeatherCatV1.21B27,2013-10-22 16:55:00,
2013-10-22 11:56:00,51.5,41.7,30.00,West,279,7.0,15.0,69,0.00,,,0.00,248,WeatherCatV1.21B27,2013-10-22 16:56:00,
2013-10-22 11:57:00,51.5,41.3,30.00,WSW,250,3.0,17.0,68,0.00,,,0.00,257,WeatherCatV1.21B27,2013-10-22 16:57:00,
2013-10-22 11:58:00,51.5,41.3,30.00,WNW,295,5.0,17.0,68,0.00,,,0.00,262,WeatherCatV1.21B27,2013-10-22 16:58:00,
2013-10-22 11:59:00,51.5,41.3,30.01,NW,321,6.0,14.0,68,0.00,,,0.00,269,WeatherCatV1.21B27,2013-10-22 16:59:00,
2013-10-22 12:01:00,51.6,41.4,30.00,North,355,2.0,14.0,68,0.00,,,0.00,306,WeatherCatV1.21B27,2013-10-22 17:01:00,
2013-10-22 12:02:00,51.7,41.9,30.00,NNW,334,7.0,8.0,69,0.00,,,0.00,468,WeatherCatV1.21B27,2013-10-22 17:02:00,
2013-10-22 12:03:00,51.7,41.5,30.01,NW,325,3.0,8.0,68,0.00,,,0.00,492,WeatherCatV1.21B27,2013-10-22 17:03:00,
2013-10-22 12:05:00,51.9,41.7,30.00,WNW,283,7.0,10.0,68,0.00,,,0.00,446,WeatherCatV1.21B27,2013-10-22 17:05:00,
2013-10-22 12:06:00,52.1,41.9,30.01,WSW,241,4.0,18.0,68,0.00,,,0.00,396,WeatherCatV1.21B27,2013-10-22 17:06:00,
2013-10-22 12:07:00,52.1,41.5,30.01,WNW,292,6.0,18.0,67,0.00,,,0.00,396,WeatherCatV1.21B27,2013-10-22 17:07:00,
2013-10-22 12:08:00,52.2,41.6,30.01,WNW,295,4.0,12.0,67,0.00,,,0.00,478,WeatherCatV1.21B27,2013-10-22 17:08:00,
2013-10-22 12:10:00,52.3,41.7,30.01,NW,321,2.0,10.0,67,0.00,,,0.00,424,WeatherCatV1.21B27,2013-10-22 17:10:00,
2013-10-22 12:11:00,52.4,42.2,30.01,NW,306,2.0,10.0,68,0.00,,,0.00,401,WeatherCatV1.21B27,2013-10-22 17:11:00,
2013-10-22 12:12:00,52.4,41.8,30.01,WNW,295,8.0,9.0,67,0.00,,,0.00,376,WeatherCatV1.21B27,2013-10-22 17:12:00,
2013-10-22 12:13:00,52.5,41.9,30.01,NNW,341,2.0,9.0,67,0.00,,,0.00,396,WeatherCatV1.21B27,2013-10-22 17:13:00,
2013-10-22 12:15:00,52.6,42.0,30.01,NW,306,6.0,10.0,67,0.00,,,0.00,388,WeatherCatV1.21B27,2013-10-22 17:15:00,
2013-10-22 12:16:00,52.6,41.6,30.01,WSW,245,1.0,15.0,66,0.00,,,0.00,318,WeatherCatV1.21B27,2013-10-22 17:16:00,
2013-10-22 12:17:00,52.7,42.0,30.01,NW,314,6.0,15.0,67,0.00,,,0.00,295,WeatherCatV1.21B27,2013-10-22 17:17:00,
2013-10-22 12:18:00,52.7,42.0,30.01,North,5,5.0,15.0,67,0.00,,,0.00,295,WeatherCatV1.21B27,2013-10-22 17:18:00,
2013-10-22 12:20:00,52.5,41.1,30.01,NW,316,12.0,17.0,65,0.00,,,0.00,350,WeatherCatV1.21B27,2013-10-22 17:20:00,
2013-10-22 12:21:00,52.4,41.0,30.01,NNW,348,7.0,19.0,65,0.00,,,0.00,350,WeatherCatV1.21B27,2013-10-22 17:21:00,
2013-10-22 12:22:00,52.3,40.9,30.01,NW,304,12.0,19.0,65,0.00,,,0.00,253,WeatherCatV1.21B27,2013-10-22 17:22:00,
2013-10-22 12:23:00,52.3,40.9,30.01,NW,317,4.0,19.0,65,0.00,,,0.00,262,WeatherCatV1.21B27,2013-10-22 17:23:00,
2013-10-22 12:24:00,52.2,40.8,30.01,NNW,348,2.0,15.0,65,0.00,,,0.00,348,WeatherCatV1.21B27,2013-10-22 17:24:00,
2013-10-22 12:25:00,52.2,41.2,30.01,West,277,4.0,13.0,66,0.00,,,0.00,264,WeatherCatV1.21B27,2013-10-22 17:25:00,
2013-10-22 12:26:00,52.3,41.3,30.01,West,277,3.0,8.0,66,0.00,,,0.00,316,WeatherCatV1.21B27,2013-10-22 17:26:00,
2013-10-22 12:28:00,52.5,41.5,30.01,NW,320,5.0,8.0,66,0.00,,,0.00,316,WeatherCatV1.21B27,2013-10-22 17:28:00,
2013-10-22 12:29:00,52.7,41.3,30.01,WNW,300,11.0,15.0,65,0.00,,,0.00,316,WeatherCatV1.21B27,2013-10-22 17:29:00,
2013-10-22 12:31:00,52.8,41.4,30.01,West,280,10.0,16.0,65,0.00,,,0.00,309,WeatherCatV1.21B27,2013-10-22 17:31:00,
2013-10-22 12:32:00,52.9,41.5,30.01,West,279,11.0,12.0,65,0.00,,,0.00,309,WeatherCatV1.21B27,2013-10-22 17:32:00,
2013-10-22 12:33:00,53.0,41.5,30.01,WNW,294,6.0,15.0,65,0.00,,,0.00,821,WeatherCatV1.21B27,2013-10-22 17:33:00,
2013-10-22 12:34:00,53.1,41.7,30.01,NNW,333,1.0,15.0,65,0.00,,,0.00,809,WeatherCatV1.21B27,2013-10-22 17:34:00,
2013-10-22 12:35:00,53.3,41.8,30.01,NNE,15,4.0,14.0,65,0.00,,,0.00,308,WeatherCatV1.21B27,2013-10-22 17:35:00,
2013-10-22 12:36:00,53.4,41.9,30.01,NW,323,5.0,14.0,65,0.00,,,0.00,279,WeatherCatV1.21B27,2013-10-22 17:36:00,
2013-10-22 12:37:00,53.5,42.0,30.01,NW,322,3.0,9.0,65,0.00,,,0.00,279,WeatherCatV1.21B27,2013-10-22 17:37:00,
2013-10-22 12:38:00,53.6,42.1,30.01,North,0,4.0,11.0,65,0.00,,,0.00,279,WeatherCatV1.21B27,2013-10-22 17:38:00,
2013-10-22 12:39:00,53.7,42.2,30.01,North,349,12.0,12.0,65,0.00,,,0.00,408,WeatherCatV1.21B27,2013-10-22 17:39:00,
2013-10-22 12:41:00,53.9,42.0,30.01,NW,326,2.0,12.0,64,0.00,,,0.00,163,WeatherCatV1.21B27,2013-10-22 17:41:00,
2013-10-22 12:42:00,53.9,42.0,30.01,NNW,327,9.0,11.0,64,0.00,,,0.00,158,WeatherCatV1.21B27,2013-10-22 17:42:00,
2013-10-22 12:43:00,53.8,41.5,30.01,NW,317,7.0,15.0,63,0.00,,,0.00,202,WeatherCatV1.21B27,2013-10-22 17:43:00,
2013-10-22 12:44:00,53.7,41.4,30.01,North,9,5.0,15.0,63,0.00,,,0.00,202,WeatherCatV1.21B27,2013-10-22 17:44:00,
2013-10-22 12:46:00,53.5,41.2,30.01,NNE,17,11.0,11.0,63,0.00,,,0.00,295,WeatherCatV1.21B27,2013-10-22 17:46:00,
2013-10-22 12:47:00,53.3,41.0,30.01,NW,313,5.0,13.0,63,0.00,,,0.00,302,WeatherCatV1.21B27,2013-10-22 17:47:00,
2013-10-22 12:48:00,53.2,40.9,30.01,NW,323,13.0,13.0,63,0.00,,,0.00,232,WeatherCatV1.21B27,2013-10-22 17:48:00,
2013-10-22 12:49:00,53.2,40.9,30.01,NNE,17,9.0,13.0,63,0.00,,,0.00,232,WeatherCatV1.21B27,2013-10-22 17:49:00,
2013-10-22 12:51:00,53.0,40.8,30.01,WNW,288,10.0,13.0,63,0.00,,,0.00,290,WeatherCatV1.21B27,2013-10-22 17:51:00,
2013-10-22 12:52:00,53.1,40.8,30.01,North,351,11.0,11.0,63,0.00,,,0.00,849,WeatherCatV1.21B27,2013-10-22 17:52:00,
2013-10-22 12:54:00,53.2,41.3,30.01,WNW,284,6.0,12.0,64,0.00,,,0.00,849,WeatherCatV1.21B27,2013-10-22 17:54:00,
2013-10-22 12:55:00,53.3,41.0,30.01,NNW,333,7.0,14.0,63,0.00,,,0.00,849,WeatherCatV1.21B27,2013-10-22 17:55:00,
2013-10-22 12:56:00,53.5,41.2,30.01,NNW,327,8.0,9.0,63,0.00,,,0.00,232,WeatherCatV1.21B27,2013-10-22 17:56:00,
2013-10-22 12:57:00,53.6,41.3,30.01,NNW,329,3.0,9.0,63,0.00,,,0.00,232,WeatherCatV1.21B27,2013-10-22 17:57:00,
2013-10-22 12:59:00,53.7,41.0,30.01,WNW,295,3.0,12.0,62,0.00,,,0.00,232,WeatherCatV1.21B27,2013-10-22 17:59:00,
2013-10-22 13:00:00,53.8,41.1,30.01,NNW,333,3.0,10.0,62,0.00,,,0.00,232,WeatherCatV1.21B27,2013-10-22 18:00:00,
2013-10-22 13:01:00,54.0,41.3,30.01,WNW,290,4.0,13.0,62,0.00,,,0.00,809,WeatherCatV1.21B27,2013-10-22 18:01:00,
2013-10-22 13:02:00,54.1,41.4,30.01,WNW,290,2.0,13.0,62,0.00,,,0.00,809,WeatherCatV1.21B27,2013-10-22 18:02:00,
2013-10-22 13:04:00,54.4,41.2,30.01,NW,319,8.0,11.0,61,0.00,,,0.00,867,WeatherCatV1.21B27,2013-10-22 18:04:00,
2013-10-22 13:05:00,54.6,41.4,30.00,North,0,1.0,11.0,61,0.00,,,0.00,891,WeatherCatV1.21B27,2013-10-22 18:05:00,
2013-10-22 13:07:00,54.9,41.7,30.00,NNW,328,5.0,13.0,61,0.00,,,0.00,283,WeatherCatV1.21B27,2013-10-22 18:07:00,
2013-10-22 13:09:00,54.9,41.3,30.00,North,5,11.0,16.0,60,0.00,,,0.00,283,WeatherCatV1.21B27,2013-10-22 18:09:00,
2013-10-22 13:10:00,54.7,41.1,30.00,NE,46,5.0,17.0,60,0.00,,,0.00,740,WeatherCatV1.21B27,2013-10-22 18:10:00,
2013-10-22 13:11:00,54.7,41.1,30.00,NNE,31,4.0,17.0,60,0.00,,,0.00,740,WeatherCatV1.21B27,2013-10-22 18:11:00,
2013-10-22 13:12:00,54.7,41.5,30.00,NNW,336,2.0,12.0,61,0.00,,,0.00,740,WeatherCatV1.21B27,2013-10-22 18:12:00,
2013-10-22 13:13:00,54.8,41.6,30.00,NNW,336,0.0,9.0,61,0.00,,,0.00,740,WeatherCatV1.21B27,2013-10-22 18:13:00,
2013-10-22 13:14:00,54.9,41.3,30.00,NNW,347,15.0,16.0,60,0.00,,,0.00,675,WeatherCatV1.21B27,2013-10-22 18:14:00,
2013-10-22 13:16:00,54.8,40.3,30.00,West,275,13.0,16.0,58,0.00,,,0.00,677,WeatherCatV1.21B27,2013-10-22 18:16:00,
2013-10-22 13:17:00,54.8,40.8,30.00,NW,324,10.0,12.0,59,0.00,,,0.00,689,WeatherCatV1.21B27,2013-10-22 18:17:00,
2013-10-22 13:18:00,54.8,40.3,30.00,WNW,296,12.0,12.0,58,0.00,,,0.00,710,WeatherCatV1.21B27,2013-10-22 18:18:00,
2013-10-22 13:19:00,54.7,40.2,30.00,North,0,2.0,12.0,58,0.00,,,0.00,745,WeatherCatV1.21B27,2013-10-22 18:19:00,
2013-10-22 13:21:00,54.9,40.8,30.00,NNW,341,3.0,12.0,59,0.00,,,0.00,745,WeatherCatV1.21B27,2013-10-22 18:21:00,
2013-10-22 13:22:00,55.1,41.5,30.00,NW,307,12.0,14.0,60,0.00,,,0.00,770,WeatherCatV1.21B27,2013-10-22 18:22:00,
2013-10-22 13:23:00,55.1,41.0,30.00,NW,321,9.0,14.0,59,0.00,,,0.00,789,WeatherCatV1.21B27,2013-10-22 18:23:00,
2013-10-22 13:25:00,55.2,41.1,30.00,North,355,3.0,15.0,59,0.00,,,0.00,786,WeatherCatV1.21B27,2013-10-22 18:25:00,
2013-10-22 13:26:00,55.3,41.2,29.99,NNW,348,11.0,14.0,59,0.00,,,0.00,824,WeatherCatV1.21B27,2013-10-22 18:26:00,
2013-10-22 13:27:00,55.4,41.3,29.99,NNW,327,13.0,14.0,59,0.00,,,0.00,824,WeatherCatV1.21B27,2013-10-22 18:27:00,
2013-10-22 13:28:00,55.4,40.9,29.99,NNW,341,9.0,14.0,58,0.00,,,0.00,828,WeatherCatV1.21B27,2013-10-22 18:28:00,
2013-10-22 13:30:00,55.6,41.1,29.99,WNW,292,11.0,16.0,58,0.00,,,0.00,918,WeatherCatV1.21B27,2013-10-22 18:30:00,
2013-10-22 13:31:00,55.7,40.7,29.99,NW,313,5.0,12.0,57,0.00,,,0.00,264,WeatherCatV1.21B27,2013-10-22 18:31:00,
2013-10-22 13:32:00,55.7,40.7,29.99,NW,314,5.0,12.0,57,0.00,,,0.00,264,WeatherCatV1.21B27,2013-10-22 18:32:00,
2013-10-22 13:33:00,55.7,40.7,30.00,North,0,4.0,11.0,57,0.00,,,0.00,230,WeatherCatV1.21B27,2013-10-22 18:33:00,
2013-10-22 13:35:00,55.3,40.3,30.00,NW,310,11.0,18.0,57,0.00,,,0.00,223,WeatherCatV1.21B27,2013-10-22 18:35:00,
2013-10-22 13:36:00,55.0,40.5,30.00,WNW,286,5.0,15.0,58,0.00,,,0.00,223,WeatherCatV1.21B27,2013-10-22 18:36:00,
2013-10-22 13:37:00,55.0,40.5,30.00,WNW,298,6.0,15.0,58,0.00,,,0.00,223,WeatherCatV1.21B27,2013-10-22 18:37:00,
2013-10-22 13:38:00,54.9,40.4,30.00,NW,325,9.0,15.0,58,0.00,,,0.00,338,WeatherCatV1.21B27,2013-10-22 18:38:00,
2013-10-22 13:40:00,55.0,40.5,30.00,NNE,22,5.0,14.0,58,0.00,,,0.00,338,WeatherCatV1.21B27,2013-10-22 18:40:00,
2013-10-22 13:42:00,55.0,40.0,29.99,North,355,12.0,13.0,57,0.00,,,0.00,225,WeatherCatV1.21B27,2013-10-22 18:42:00,
2013-10-22 13:43:00,55.0,40.0,29.99,NNW,341,3.0,13.0,57,0.00,,,0.00,246,WeatherCatV1.21B27,2013-10-22 18:43:00,
2013-10-22 13:44:00,55.0,40.0,29.99,NNW,336,4.0,12.0,57,0.00,,,0.00,246,WeatherCatV1.21B27,2013-10-22 18:44:00,
2013-10-22 13:45:00,55.0,40.5,30.00,NW,310,5.0,9.0,58,0.00,,,0.00,202,WeatherCatV1.21B27,2013-10-22 18:45:00,
2013-10-22 13:47:00,55.0,40.5,30.00,NNW,348,11.0,15.0,58,0.00,,,0.00,202,WeatherCatV1.21B27,2013-10-22 18:47:00,
2013-10-22 13:48:00,55.0,40.5,29.99,WSW,249,11.0,15.0,58,0.00,,,0.00,202,WeatherCatV1.21B27,2013-10-22 18:48:00,
2013-10-22 13:49:00,55.1,40.6,29.99,NW,322,6.0,15.0,58,0.00,,,0.00,819,WeatherCatV1.21B27,2013-10-22 18:49:00,
2013-10-22 13:51:00,55.1,40.1,29.99,NW,305,11.0,13.0,57,0.00,,,0.00,819,WeatherCatV1.21B27,2013-10-22 18:51:00,
2013-10-22 13:53:00,55.1,40.6,29.99,North,9,9.0,13.0,58,0.00,,,0.00,248,WeatherCatV1.21B27,2013-10-22 18:53:00,
2013-10-22 13:54:00,55.1,40.1,29.99,NW,313,5.0,13.0,57,0.00,,,0.00,220,WeatherCatV1.21B27,2013-10-22 18:54:00,
2013-10-22 13:56:00,55.0,40.0,29.99,NNE,21,2.0,11.0,57,0.00,,,0.00,220,WeatherCatV1.21B27,2013-10-22 18:56:00,
2013-10-22 13:58:00,54.9,40.0,29.99,North,349,3.0,10.0,57,0.00,,,0.00,220,WeatherCatV1.21B27,2013-10-22 18:58:00,
2013-10-22 13:59:00,54.9,40.0,29.99,North,0,9.0,13.0,57,0.00,,,0.00,174,WeatherCatV1.21B27,2013-10-22 18:59:00,
2013-10-22 14:01:00,54.7,39.8,29.99,NW,307,15.0,15.0,57,0.00,,,0.00,160,WeatherCatV1.21B27,2013-10-22 19:01:00,
2013-10-22 14:03:00,54.6,39.2,29.99,NW,319,4.0,19.0,56,0.00,,,0.00,160,WeatherCatV1.21B27,2013-10-22 19:03:00,
2013-10-22 14:04:00,54.6,39.2,29.99,NW,310,16.0,16.0,56,0.00,,,0.00,367,WeatherCatV1.21B27,2013-10-22 19:04:00,
2013-10-22 14:06:00,54.9,40.4,29.99,NW,317,0.0,6.0,58,0.00,,,0.00,733,WeatherCatV1.21B27,2013-10-22 19:06:00,
2013-10-22 14:08:00,55.4,41.3,29.98,NW,321,1.0,2.0,59,0.00,,,0.00,830,WeatherCatV1.21B27,2013-10-22 19:08:00,
2013-10-22 14:09:00,55.7,41.6,29.98,WNW,295,2.0,12.0,59,0.00,,,0.00,844,WeatherCatV1.21B27,2013-10-22 19:09:00,
2013-10-22 14:10:00,55.9,40.9,29.98,North,5,6.0,12.0,57,0.00,,,0.00,844,WeatherCatV1.21B27,2013-10-22 19:10:00,
2013-10-22 14:11:00,56.2,40.2,29.98,NNW,344,9.0,15.0,55,0.00,,,0.00,271,WeatherCatV1.21B27,2013-10-22 19:11:00,
2013-10-22 14:13:00,56.2,39.8,29.98,North,0,4.0,10.0,54,0.00,,,0.00,271,WeatherCatV1.21B27,2013-10-22 19:13:00,
2013-10-22 14:14:00,56.2,39.3,29.98,WNW,301,9.0,10.0,53,0.00,,,0.00,255,WeatherCatV1.21B27,2013-10-22 19:14:00,
2013-10-22 14:15:00,56.1,39.2,29.98,WNW,294,5.0,14.0,53,0.00,,,0.00,197,WeatherCatV1.21B27,2013-10-22 19:15:00,
2013-10-22 14:17:00,55.8,38.9,29.98,WNW,292,4.0,13.0,53,0.00,,,0.00,258,WeatherCatV1.21B27,2013-10-22 19:17:00,
2013-10-22 14:18:00,55.8,39.4,29.98,WNW,303,6.0,16.0,54,0.00,,,0.00,823,WeatherCatV1.21B27,2013-10-22 19:18:00,
2013-10-22 14:19:00,55.8,39.4,29.98,NW,325,1.0,16.0,54,0.00,,,0.00,823,WeatherCatV1.21B27,2013-10-22 19:19:00,
2013-10-22 14:20:00,55.9,39.5,29.98,NNW,330,8.0,15.0,54,0.00,,,0.00,823,WeatherCatV1.21B27,2013-10-22 19:20:00,
2013-10-22 14:21:00,55.9,39.5,29.98,NW,325,7.0,15.0,54,0.00,,,0.00,823,WeatherCatV1.21B27,2013-10-22 19:21:00,
2013-10-22 14:22:00,56.0,39.1,29.98,WNW,303,12.0,18.0,53,0.00,,,0.00,712,WeatherCatV1.21B27,2013-10-22 19:22:00,
2013-10-22 14:23:00,56.2,39.8,29.99,NW,311,6.0,14.0,54,0.00,,,0.00,712,WeatherCatV1.21B27,2013-10-22 19:23:00,
2013-10-22 14:24:00,56.2,39.3,29.98,NNW,331,7.0,14.0,53,0.00,,,0.00,744,WeatherCatV1.21B27,2013-10-22 19:24:00,
2013-10-22 14:25:00,56.3,39.4,29.98,NW,314,6.0,14.0,53,0.00,,,0.00,744,WeatherCatV1.21B27,2013-10-22 19:25:00,
2013-10-22 14:26:00,56.4,39.5,29.98,NW,326,14.0,14.0,53,0.00,,,0.00,733,WeatherCatV1.21B27,2013-10-22 19:26:00,
2013-10-22 14:27:00,56.5,39.6,29.98,North,355,12.0,14.0,53,0.00,,,0.00,719,WeatherCatV1.21B27,2013-10-22 19:27:00,
2013-10-22 14:29:00,56.6,38.7,29.98,West,281,5.0,18.0,51,0.00,,,0.00,703,WeatherCatV1.21B27,2013-10-22 19:29:00,
2013-10-22 14:30:00,56.7,38.8,29.98,NW,313,10.0,18.0,51,0.00,,,0.00,708,WeatherCatV1.21B27,2013-10-22 19:30:00,
2013-10-22 14:31:00,56.8,38.4,29.98,NNW,340,14.0,16.0,50,0.00,,,0.00,737,WeatherCatV1.21B27,2013-10-22 19:31:00,
2013-10-22 14:32:00,56.7,37.8,29.98,NW,309,6.0,20.0,49,0.00,,,0.00,737,WeatherCatV1.21B27,2013-10-22 19:32:00,
2013-10-22 14:34:00,56.8,37.8,29.98,NW,321,14.0,16.0,49,0.00,,,0.00,691,WeatherCatV1.21B27,2013-10-22 19:34:00,
2013-10-22 14:35:00,56.8,37.8,29.98,WSW,257,9.0,16.0,49,0.00,,,0.00,691,WeatherCatV1.21B27,2013-10-22 19:35:00,
2013-10-22 14:36:00,56.7,37.8,29.98,West,268,5.0,19.0,49,0.00,,,0.00,707,WeatherCatV1.21B27,2013-10-22 19:36:00,
2013-10-22 14:37:00,56.7,37.8,29.99,NW,309,7.0,19.0,49,0.00,,,0.00,707,WeatherCatV1.21B27,2013-10-22 19:37:00,
2013-10-22 14:40:00,56.5,37.6,29.98,North,5,7.0,16.0,49,0.00,,,0.00,724,WeatherCatV1.21B27,2013-10-22 19:40:00,
2013-10-22 14:41:00,56.5,38.1,29.98,NW,307,4.0,18.0,50,0.00,,,0.00,717,WeatherCatV1.21B27,2013-10-22 19:41:00,
2013-10-22 14:42:00,56.5,37.6,29.99,WNW,299,10.0,18.0,49,0.00,,,0.00,717,WeatherCatV1.21B27,2013-10-22 19:42:00,
2013-10-22 14:45:00,56.5,38.1,29.98,NNE,18,6.0,16.0,50,0.00,,,0.00,733,WeatherCatV1.21B27,2013-10-22 19:45:00,
2013-10-22 14:47:00,56.8,37.3,29.98,North,355,17.0,18.0,48,0.00,,,0.00,795,WeatherCatV1.21B27,2013-10-22 19:47:00,
2013-10-22 14:50:00,57.2,37.7,29.98,WNW,284,13.0,17.0,48,0.00,,,0.00,707,WeatherCatV1.21B27,2013-10-22 19:50:00,
2013-10-22 14:51:00,57.2,37.7,29.98,NW,323,14.0,17.0,48,0.00,,,0.00,313,WeatherCatV1.21B27,2013-10-22 19:51:00,
2013-10-22 14:52:00,57.1,37.6,29.98,NW,306,3.0,17.0,48,0.00,,,0.00,313,WeatherCatV1.21B27,2013-10-22 19:52:00,
2013-10-22 14:53:00,57.1,37.6,29.98,NW,312,5.0,11.0,48,0.00,,,0.00,772,WeatherCatV1.21B27,2013-10-22 19:53:00,
2013-10-22 14:55:00,57.3,38.3,29.98,NNW,329,5.0,12.0,49,0.00,,,0.00,782,WeatherCatV1.21B27,2013-10-22 19:55:00,
2013-10-22 14:56:00,57.4,38.4,29.98,NNW,341,7.0,12.0,49,0.00,,,0.00,782,WeatherCatV1.21B27,2013-10-22 19:56:00,
2013-10-22 14:57:00,57.5,38.5,29.99,NNE,15,13.0,15.0,49,0.00,,,0.00,782,WeatherCatV1.21B27,2013-10-22 19:57:00,
2013-10-22 14:59:00,57.3,38.3,29.99,NNW,327,1.0,15.0,49,0.00,,,0.00,165,WeatherCatV1.21B27,2013-10-22 19:59:00,
2013-10-22 15:00:00,57.0,38.0,29.99,NW,321,5.0,15.0,49,0.00,,,0.00,165,WeatherCatV1.21B27,2013-10-22 20:00:00,
2013-10-22 15:02:00,56.7,37.8,29.99,NNE,18,10.0,17.0,49,0.00,,,0.00,104,WeatherCatV1.21B27,2013-10-22 20:02:00,
2013-10-22 15:04:00,56.3,37.4,29.99,North,5,2.0,13.0,49,0.00,,,0.00,612,WeatherCatV1.21B27,2013-10-22 20:04:00,
2013-10-22 15:05:00,56.1,37.7,29.99,NW,313,10.0,16.0,50,0.00,,,0.00,613,WeatherCatV1.21B27,2013-10-22 20:05:00,
2013-10-22 15:08:00,56.1,37.7,29.98,NW,325,3.0,11.0,50,0.00,,,0.00,622,WeatherCatV1.21B27,2013-10-22 20:08:00,
2013-10-22 15:09:00,56.2,37.8,29.98,NNW,334,3.0,12.0,50,0.00,,,0.00,622,WeatherCatV1.21B27,2013-10-22 20:09:00,
2013-10-22 15:11:00,56.6,38.7,29.99,North,349,14.0,21.0,51,0.00,,,0.00,643,WeatherCatV1.21B27,2013-10-22 20:11:00,
2013-10-22 15:13:00,56.8,39.4,29.98,North,350,14.0,16.0,52,0.00,,,0.00,635,WeatherCatV1.21B27,2013-10-22 20:13:00,
2013-10-22 15:15:00,57.0,39.5,29.99,North,11,11.0,20.0,52,0.00,,,0.00,617,WeatherCatV1.21B27,2013-10-22 20:15:00,
2013-10-22 15:16:00,56.9,39.0,29.99,NNW,340,10.0,20.0,51,0.00,,,0.00,617,WeatherCatV1.21B27,2013-10-22 20:16:00,
2013-10-22 15:18:00,56.6,39.2,29.99,NNW,336,5.0,5.0,52,0.00,,,0.00,617,WeatherCatV1.21B27,2013-10-22 20:18:00,
2013-10-22 15:19:00,56.6,39.2,29.99,NNW,334,15.0,15.0,52,0.00,,,0.00,617,WeatherCatV1.21B27,2013-10-22 20:19:00,
2013-10-22 15:20:00,56.5,38.6,29.99,NNW,344,6.0,19.0,51,0.00,,,0.00,605,WeatherCatV1.21B27,2013-10-22 20:20:00,
2013-10-22 15:21:00,56.3,38.4,29.99,North,355,7.0,11.0,51,0.00,,,0.00,591,WeatherCatV1.21B27,2013-10-22 20:21:00,
2013-10-22 15:22:00,56.3,38.4,29.99,North,349,11.0,12.0,51,0.00,,,0.00,599,WeatherCatV1.21B27,2013-10-22 20:22:00,
2013-10-22 15:24:00,56.1,38.2,29.99,NW,309,11.0,15.0,51,0.00,,,0.00,599,WeatherCatV1.21B27,2013-10-22 20:24:00,
2013-10-22 15:25:00,55.9,38.5,29.99,North,11,6.0,15.0,52,0.00,,,0.00,599,WeatherCatV1.21B27,2013-10-22 20:25:00,
2013-10-22 15:26:00,55.7,37.8,29.99,North,11,9.0,17.0,51,0.00,,,0.00,599,WeatherCatV1.21B27,2013-10-22 20:26:00,
2013-10-22 15:27:00,55.7,37.8,29.99,NW,317,10.0,17.0,51,0.00,,,0.00,599,WeatherCatV1.21B27,2013-10-22 20:27:00,
2013-10-22 15:29:00,55.5,37.7,29.99,NW,313,10.0,18.0,51,0.00,,,0.00,578,WeatherCatV1.21B27,2013-10-22 20:29:00,
2013-10-22 15:30:00,55.5,37.7,29.99,North,9,14.0,23.0,51,0.00,,,0.00,134,WeatherCatV1.21B27,2013-10-22 20:30:00,
2013-10-22 15:31:00,55.5,37.7,29.99,North,0,6.0,23.0,51,0.00,,,0.00,134,WeatherCatV1.21B27,2013-10-22 20:31:00,
2013-10-22 15:32:00,55.4,37.6,29.99,NNW,336,6.0,13.0,51,0.00,,,0.00,134,WeatherCatV1.21B27,2013-10-22 20:32:00,
2013-10-22 15:34:00,55.5,37.2,29.99,WNW,301,9.0,18.0,50,0.00,,,0.00,116,WeatherCatV1.21B27,2013-10-22 20:34:00,
2013-10-22 15:35:00,55.6,36.7,29.99,North,0,7.0,18.0,49,0.00,,,0.00,116,WeatherCatV1.21B27,2013-10-22 20:35:00,
2013-10-22 15:36:00,55.6,36.7,29.99,NW,315,14.0,17.0,49,0.00,,,0.00,116,WeatherCatV1.21B27,2013-10-22 20:36:00,
2013-10-22 15:37:00,55.5,36.7,30.00,North,9,4.0,16.0,49,0.00,,,0.00,93,WeatherCatV1.21B27,2013-10-22 20:37:00,
2013-10-22 15:39:00,55.4,36.6,30.00,NNW,344,6.0,13.0,49,0.00,,,0.00,526,WeatherCatV1.21B27,2013-10-22 20:39:00,
2013-10-22 15:40:00,55.4,36.6,30.00,NNW,331,4.0,13.0,49,0.00,,,0.00,476,WeatherCatV1.21B27,2013-10-22 20:40:00,
2013-10-22 15:41:00,55.5,37.2,30.00,NW,319,8.0,12.0,50,0.00,,,0.00,485,WeatherCatV1.21B27,2013-10-22 20:41:00,
2013-10-22 15:42:00,55.6,36.7,30.00,NW,306,6.0,12.0,49,0.00,,,0.00,84,WeatherCatV1.21B27,2013-10-22 20:42:00,
2013-10-22 15:45:00,55.4,36.6,30.00,NW,306,10.0,19.0,49,0.00,,,0.00,77,WeatherCatV1.21B27,2013-10-22 20:45:00,
2013-10-22 15:46:00,55.3,36.5,29.99,NNE,22,8.0,19.0,49,0.00,,,0.00,77,WeatherCatV1.21B27,2013-10-22 20:46:00,
2013-10-22 15:47:00,55.2,36.4,30.00,NNW,347,5.0,15.0,49,0.00,,,0.00,77,WeatherCatV1.21B27,2013-10-22 20:47:00,
2013-10-22 15:50:00,55.4,36.6,30.00,North,350,17.0,19.0,49,0.00,,,0.00,77,WeatherCatV1.21B27,2013-10-22 20:50:00,
2013-10-22 15:51:00,55.5,36.7,29.99,NNW,343,5.0,19.0,49,0.00,,,0.00,526,WeatherCatV1.21B27,2013-10-22 20:51:00,
2013-10-22 15:52:00,55.7,36.8,30.00,NNW,344,5.0,14.0,49,0.00,,,0.00,529,WeatherCatV1.21B27,2013-10-22 20:52:00,
2013-10-22 15:55:00,56.1,37.2,30.00,NNE,19,5.0,9.0,49,0.00,,,0.00,543,WeatherCatV1.21B27,2013-10-22 20:55:00,
2013-10-22 15:56:00,56.3,37.4,29.99,East,80,9.0,17.0,49,0.00,,,0.00,543,WeatherCatV1.21B27,2013-10-22 20:56:00,
2013-10-22 15:57:00,56.4,37.5,30.00,NNW,330,10.0,17.0,49,0.00,,,0.00,543,WeatherCatV1.21B27,2013-10-22 20:57:00,
2013-10-22 15:58:00,56.5,38.1,30.00,NNW,337,4.0,17.0,50,0.00,,,0.00,587,WeatherCatV1.21B27,2013-10-22 20:58:00,
2013-10-22 16:00:00,56.5,38.1,30.00,NNW,329,6.0,20.0,50,0.00,,,0.00,575,WeatherCatV1.21B27,2013-10-22 21:00:00,
2013-10-22 16:01:00,56.5,38.1,30.00,North,5,2.0,12.0,50,0.00,,,0.00,575,WeatherCatV1.21B27,2013-10-22 21:01:00,
2013-10-22 16:02:00,56.5,38.1,30.00,NNW,346,4.0,13.0,50,0.00,,,0.00,531,WeatherCatV1.21B27,2013-10-22 21:02:00,
2013-10-22 16:03:00,56.4,38.0,30.00,North,355,4.0,16.0,50,0.00,,,0.00,517,WeatherCatV1.21B27,2013-10-22 21:03:00,
2013-10-22 16:05:00,56.4,37.5,30.00,NNW,340,15.0,15.0,49,0.00,,,0.00,527,WeatherCatV1.21B27,2013-10-22 21:05:00,
2013-10-22 16:06:00,56.3,37.4,30.00,NNE,13,14.0,15.0,49,0.00,,,0.00,527,WeatherCatV1.21B27,2013-10-22 21:06:00,
2013-10-22 16:07:00,56.1,37.2,30.00,NNW,348,12.0,18.0,49,0.00,,,0.00,492,WeatherCatV1.21B27,2013-10-22 21:07:00,
2013-10-22 16:08:00,56.0,37.1,30.00,WNW,301,5.0,18.0,49,0.00,,,0.00,492,WeatherCatV1.21B27,2013-10-22 21:08:00,
2013-10-22 16:09:00,55.9,37.0,30.00,WNW,301,10.0,12.0,49,0.00,,,0.00,155,WeatherCatV1.21B27,2013-10-22 21:09:00,
2013-10-22 16:11:00,55.6,36.7,30.00,NW,309,5.0,16.0,49,0.00,,,0.00,158,WeatherCatV1.21B27,2013-10-22 21:11:00,
2013-10-22 16:12:00,55.5,37.2,30.00,NW,321,21.0,21.0,50,0.00,,,0.00,158,WeatherCatV1.21B27,2013-10-22 21:12:00,
2013-10-22 16:13:00,55.3,37.5,30.00,NNE,14,10.0,22.0,51,0.00,,,0.00,158,WeatherCatV1.21B27,2013-10-22 21:13:00,
2013-10-22 16:14:00,55.2,37.4,30.00,NNE,20,5.0,22.0,51,0.00,,,0.00,158,WeatherCatV1.21B27,2013-10-22 21:14:00,
2013-10-22 16:16:00,55.0,37.7,30.00,NE,35,14.0,16.0,52,0.00,,,0.00,415,WeatherCatV1.21B27,2013-10-22 21:16:00,
2013-10-22 16:17:00,54.9,37.6,30.00,NNE,21,5.0,16.0,52,0.00,,,0.00,415,WeatherCatV1.21B27,2013-10-22 21:17:00,
2013-10-22 16:19:00,54.9,38.1,30.01,NW,317,4.0,17.0,53,0.00,,,0.00,394,WeatherCatV1.21B27,2013-10-22 21:19:00,
2013-10-22 16:21:00,55.0,38.2,30.01,NW,325,2.0,13.0,53,0.00,,,0.00,394,WeatherCatV1.21B27,2013-10-22 21:21:00,
2013-10-22 16:22:00,55.0,38.2,30.01,NNE,20,15.0,15.0,53,0.00,,,0.00,107,WeatherCatV1.21B27,2013-10-22 21:22:00,
2013-10-22 16:24:00,54.8,37.5,30.01,NNE,18,4.0,15.0,52,0.00,,,0.00,91,WeatherCatV1.21B27,2013-10-22 21:24:00,
2013-10-22 16:25:00,54.8,37.5,30.01,NE,44,8.0,15.0,52,0.00,,,0.00,415,WeatherCatV1.21B27,2013-10-22 21:25:00,
2013-10-22 16:27:00,54.7,36.9,30.01,NNW,337,6.0,15.0,51,0.00,,,0.00,396,WeatherCatV1.21B27,2013-10-22 21:27:00,
2013-10-22 16:28:00,54.8,37.5,30.01,NNE,26,11.0,11.0,52,0.00,,,0.00,385,WeatherCatV1.21B27,2013-10-22 21:28:00,
2013-10-22 16:29:00,54.8,37.5,30.01,NNE,30,11.0,13.0,52,0.00,,,0.00,380,WeatherCatV1.21B27,2013-10-22 21:29:00,
2013-10-22 16:30:00,54.9,37.1,30.01,NNW,331,14.0,14.0,51,0.00,,,0.00,376,WeatherCatV1.21B27,2013-10-22 21:30:00,
2013-10-22 16:32:00,55.0,37.2,30.01,NW,313,11.0,15.0,51,0.00,,,0.00,362,WeatherCatV1.21B27,2013-10-22 21:32:00,
2013-10-22 16:33:00,55.0,37.2,30.01,NW,322,5.0,15.0,51,0.00,,,0.00,362,WeatherCatV1.21B27,2013-10-22 21:33:00,
2013-10-22 16:34:00,55.0,37.7,30.01,NNW,342,7.0,15.0,52,0.00,,,0.00,360,WeatherCatV1.21B27,2013-10-22 21:34:00,
2013-10-22 16:35:00,55.1,37.3,30.01,NW,318,3.0,16.0,51,0.00,,,0.00,357,WeatherCatV1.21B27,2013-10-22 21:35:00,
2013-10-22 16:37:00,55.2,37.4,30.01,North,0,5.0,14.0,51,0.00,,,0.00,352,WeatherCatV1.21B27,2013-10-22 21:37:00,
2013-10-22 16:38:00,55.2,37.4,30.01,North,5,9.0,14.0,51,0.00,,,0.00,353,WeatherCatV1.21B27,2013-10-22 21:38:00,
2013-10-22 16:39:00,55.3,37.0,30.01,NNW,340,6.0,12.0,50,0.00,,,0.00,355,WeatherCatV1.21B27,2013-10-22 21:39:00,
2013-10-22 16:40:00,55.4,37.1,30.01,NNW,327,9.0,12.0,50,0.00,,,0.00,362,WeatherCatV1.21B27,2013-10-22 21:40:00,
2013-10-22 16:42:00,55.5,37.2,30.01,North,355,5.0,19.0,50,0.00,,,0.00,380,WeatherCatV1.21B27,2013-10-22 21:42:00,
2013-10-22 16:43:00,55.5,37.2,30.01,NNW,344,4.0,19.0,50,0.00,,,0.00,390,WeatherCatV1.21B27,2013-10-22 21:43:00,
2013-10-22 16:44:00,55.7,37.8,30.02,NW,320,14.0,14.0,51,0.00,,,0.00,373,WeatherCatV1.21B27,2013-10-22 21:44:00,
2013-10-22 16:45:00,55.7,37.3,30.01,WNW,296,14.0,14.0,50,0.00,,,0.00,360,WeatherCatV1.21B27,2013-10-22 21:45:00,
2013-10-22 16:47:00,55.5,37.2,30.02,North,355,4.0,16.0,50,0.00,,,0.00,355,WeatherCatV1.21B27,2013-10-22 21:47:00,
2013-10-22 16:48:00,55.5,37.2,30.02,North,355,4.0,16.0,50,0.00,,,0.00,355,WeatherCatV1.21B27,2013-10-22 21:48:00,
2013-10-22 16:50:00,55.4,37.1,30.01,North,9,18.0,18.0,50,0.00,,,0.00,323,WeatherCatV1.21B27,2013-10-22 21:50:00,
2013-10-22 16:51:00,55.3,37.0,30.02,NNW,344,3.0,18.0,50,0.00,,,0.00,308,WeatherCatV1.21B27,2013-10-22 21:51:00,
2013-10-22 16:53:00,55.3,37.0,30.02,NNW,344,0.0,12.0,50,0.00,,,0.00,297,WeatherCatV1.21B27,2013-10-22 21:53:00,
2013-10-22 16:54:00,55.3,37.5,30.02,NW,324,11.0,12.0,51,0.00,,,0.00,297,WeatherCatV1.21B27,2013-10-22 21:54:00,
2013-10-22 16:55:00,55.3,37.0,30.02,NW,315,10.0,15.0,50,0.00,,,0.00,295,WeatherCatV1.21B27,2013-10-22 21:55:00,
2013-10-22 16:56:00,55.2,36.9,30.02,SW,225,3.0,15.0,50,0.00,,,0.00,290,WeatherCatV1.21B27,2013-10-22 21:56:00,
2013-10-22 16:58:00,55.1,37.3,30.02,NNE,16,6.0,11.0,51,0.00,,,0.00,283,WeatherCatV1.21B27,2013-10-22 21:58:00,
2013-10-22 16:59:00,55.1,37.3,30.02,NNW,344,5.0,14.0,51,0.00,,,0.00,279,WeatherCatV1.21B27,2013-10-22 21:59:00,
2013-10-22 17:00:00,54.9,37.1,30.02,NNW,338,5.0,11.0,51,0.00,,,0.00,274,WeatherCatV1.21B27,2013-10-22 22:00:00,
2013-10-22 17:01:00,54.8,37.5,30.02,NNW,332,4.0,11.0,52,0.00,,,0.00,274,WeatherCatV1.21B27,2013-10-22 22:01:00,
2013-10-22 17:03:00,54.7,37.4,30.03,NW,314,5.0,12.0,52,0.00,,,0.00,262,WeatherCatV1.21B27,2013-10-22 22:03:00,
2013-10-22 17:04:00,54.5,37.2,30.03,North,0,10.0,19.0,52,0.00,,,0.00,257,WeatherCatV1.21B27,2013-10-22 22:04:00,
2013-10-22 17:05:00,54.4,37.2,30.03,NW,319,2.0,10.0,52,0.00,,,0.00,253,WeatherCatV1.21B27,2013-10-22 22:05:00,
2013-10-22 17:06:00,54.4,37.6,30.03,North,355,7.0,10.0,53,0.00,,,0.00,250,WeatherCatV1.21B27,2013-10-22 22:06:00,
2013-10-22 17:08:00,54.3,37.5,30.03,NNE,21,2.0,12.0,53,0.00,,,0.00,243,WeatherCatV1.21B27,2013-10-22 22:08:00,
2013-10-22 17:10:00,54.3,37.5,30.03,North,5,1.0,8.0,53,0.00,,,0.00,236,WeatherCatV1.21B27,2013-10-22 22:10:00,
2013-10-22 17:11:00,54.2,37.4,30.03,North,355,10.0,20.0,53,0.00,,,0.00,232,WeatherCatV1.21B27,2013-10-22 22:11:00,
2013-10-22 17:13:00,53.9,37.2,30.03,WNW,288,9.0,10.0,53,0.00,,,0.00,223,WeatherCatV1.21B27,2013-10-22 22:13:00,
2013-10-22 17:14:00,53.9,37.2,30.03,NNE,30,11.0,11.0,53,0.00,,,0.00,223,WeatherCatV1.21B27,2013-10-22 22:14:00,
2013-10-22 17:15:00,53.8,37.1,30.03,NNW,341,6.0,11.0,53,0.00,,,0.00,221,WeatherCatV1.21B27,2013-10-22 22:15:00,
2013-10-22 17:16:00,53.7,37.0,30.03,NW,321,3.0,11.0,53,0.00,,,0.00,218,WeatherCatV1.21B27,2013-10-22 22:16:00,
2013-10-22 17:19:00,53.6,37.4,30.03,NNE,32,3.0,9.0,54,0.00,,,0.00,207,WeatherCatV1.21B27,2013-10-22 22:19:00,
2013-10-22 17:20:00,53.6,37.4,30.04,North,0,5.0,13.0,54,0.00,,,0.00,199,WeatherCatV1.21B27,2013-10-22 22:20:00,
2013-10-22 17:21:00,53.5,37.3,30.03,NNW,338,9.0,13.0,54,0.00,,,0.00,199,WeatherCatV1.21B27,2013-10-22 22:21:00,
2013-10-22 17:22:00,53.6,37.4,30.03,NE,42,2.0,12.0,54,0.00,,,0.00,197,WeatherCatV1.21B27,2013-10-22 22:22:00,
2013-10-22 17:24:00,53.6,37.4,30.04,North,355,2.0,13.0,54,0.00,,,0.00,185,WeatherCatV1.21B27,2013-10-22 22:24:00,
2013-10-22 17:25:00,53.6,37.8,30.04,North,0,3.0,10.0,55,0.00,,,0.00,179,WeatherCatV1.21B27,2013-10-22 22:25:00,
2013-10-22 17:26:00,53.6,37.8,30.03,North,355,5.0,10.0,55,0.00,,,0.00,179,WeatherCatV1.21B27,2013-10-22 22:26:00,
2013-10-22 17:27:00,53.5,37.7,30.03,NE,46,9.0,10.0,55,0.00,,,0.00,174,WeatherCatV1.21B27,2013-10-22 22:27:00,
2013-10-22 17:29:00,53.3,37.1,30.04,NNW,344,2.0,13.0,54,0.00,,,0.00,165,WeatherCatV1.21B27,2013-10-22 22:29:00,
2013-10-22 17:31:00,53.2,37.0,30.03,NNE,28,6.0,11.0,54,0.00,,,0.00,162,WeatherCatV1.21B27,2013-10-22 22:31:00,
2013-10-22 17:32:00,53.2,37.0,30.03,North,0,1.0,11.0,54,0.00,,,0.00,158,WeatherCatV1.21B27,2013-10-22 22:32:00,
2013-10-22 17:33:00,53.1,36.9,30.03,NNW,329,6.0,14.0,54,0.00,,,0.00,155,WeatherCatV1.21B27,2013-10-22 22:33:00,
2013-10-22 17:34:00,53.0,36.8,30.03,North,0,2.0,5.0,54,0.00,,,0.00,148,WeatherCatV1.21B27,2013-10-22 22:34:00,
2013-10-22 17:36:00,53.0,36.8,30.03,North,0,5.0,11.0,54,0.00,,,0.00,141,WeatherCatV1.21B27,2013-10-22 22:36:00,
2013-10-22 17:37:00,53.0,37.3,30.03,North,0,9.0,11.0,55,0.00,,,0.00,137,WeatherCatV1.21B27,2013-10-22 22:37:00,
2013-10-22 17:38:00,52.9,37.2,30.03,North,5,4.0,10.0,55,0.00,,,0.00,134,WeatherCatV1.21B27,2013-10-22 22:38:00,
2013-10-22 17:39:00,52.8,37.1,30.03,North,5,11.0,11.0,55,0.00,,,0.00,130,WeatherCatV1.21B27,2013-10-22 22:39:00,
2013-10-22 17:40:00,52.8,37.1,30.03,NE,34,6.0,11.0,55,0.00,,,0.00,127,WeatherCatV1.21B27,2013-10-22 22:40:00,
2013-10-22 17:41:00,52.7,37.0,30.03,North,0,2.0,11.0,55,0.00,,,0.00,123,WeatherCatV1.21B27,2013-10-22 22:41:00,
2013-10-22 17:43:00,52.6,37.3,30.03,ENE,59,3.0,12.0,56,0.00,,,0.00,116,WeatherCatV1.21B27,2013-10-22 22:43:00,
2013-10-22 17:44:00,52.5,37.3,30.03,NW,320,4.0,12.0,56,0.00,,,0.00,111,WeatherCatV1.21B27,2013-10-22 22:44:00,
2013-10-22 17:45:00,52.5,37.3,30.03,North,11,2.0,10.0,56,0.00,,,0.00,111,WeatherCatV1.21B27,2013-10-22 22:45:00,
2013-10-22 17:46:00,52.4,37.2,30.03,NNW,344,2.0,6.0,56,0.00,,,0.00,107,WeatherCatV1.21B27,2013-10-22 22:46:00,
2013-10-22 17:48:00,52.3,37.1,30.03,NNW,341,7.0,10.0,56,0.00,,,0.00,98,WeatherCatV1.21B27,2013-10-22 22:48:00,
2013-10-22 17:50:00,52.2,37.0,30.03,North,355,6.0,12.0,56,0.00,,,0.00,95,WeatherCatV1.21B27,2013-10-22 22:50:00,
2013-10-22 17:51:00,52.1,36.9,30.03,NNE,15,12.0,12.0,56,0.00,,,0.00,90,WeatherCatV1.21B27,2013-10-22 22:51:00,
2013-10-22 17:53:00,51.9,37.2,30.04,NE,40,3.0,3.0,57,0.00,,,0.00,83,WeatherCatV1.21B27,2013-10-22 22:53:00,
2013-10-22 17:54:00,51.9,37.2,30.04,NE,40,1.0,3.0,57,0.00,,,0.00,79,WeatherCatV1.21B27,2013-10-22 22:54:00,
2013-10-22 17:55:00,51.8,37.1,30.04,NNW,327,5.0,7.0,57,0.00,,,0.00,74,WeatherCatV1.21B27,2013-10-22 22:55:00,
2013-10-22 17:56:00,51.6,36.4,30.04,NNW,340,11.0,12.0,56,0.00,,,0.00,65,WeatherCatV1.21B27,2013-10-22 22:56:00,
2013-10-22 17:58:00,51.5,36.3,30.04,NNW,336,5.0,7.0,56,0.00,,,0.00,51,WeatherCatV1.21B27,2013-10-22 22:58:00,
2013-10-22 17:59:00,51.4,36.2,30.04,NNW,340,1.0,7.0,56,0.00,,,0.00,51,WeatherCatV1.21B27,2013-10-22 22:59:00,
2013-10-22 18:00:00,51.4,36.7,30.04,NNW,340,2.0,5.0,57,0.00,,,0.00,42,WeatherCatV1.21B27,2013-10-22 23:00:00,
2013-10-22 18:01:00,51.3,36.6,30.04,NNW,346,1.0,10.0,57,0.00,,,0.00,28,WeatherCatV1.21B27,2013-10-22 23:01:00,
2013-10-22 18:04:00,51.1,36.4,30.04,NNW,330,7.0,10.0,57,0.00,,,0.00,26,WeatherCatV1.21B27,2013-10-22 23:04:00,
2013-10-22 18:05:00,51.0,36.3,30.04,North,355,1.0,7.0,57,0.00,,,0.00,23,WeatherCatV1.21B27,2013-10-22 23:05:00,
2013-10-22 18:07:00,50.9,36.2,30.04,NNW,334,6.0,7.0,57,0.00,,,0.00,23,WeatherCatV1.21B27,2013-10-22 23:07:00,
2013-10-22 18:09:00,50.8,36.1,30.04,NNW,341,7.0,11.0,57,0.00,,,0.00,28,WeatherCatV1.21B27,2013-10-22 23:09:00,
2013-10-22 18:10:00,50.8,36.1,30.04,North,355,5.0,11.0,57,0.00,,,0.00,26,WeatherCatV1.21B27,2013-10-22 23:10:00,
2013-10-22 18:11:00,50.7,36.0,30.04,NW,318,7.0,12.0,57,0.00,,,0.00,25,WeatherCatV1.21B27,2013-10-22 23:11:00,
2013-10-22 18:12:00,50.6,35.9,30.04,North,0,1.0,12.0,57,0.00,,,0.00,23,WeatherCatV1.21B27,2013-10-22 23:12:00,
2013-10-22 18:14:00,50.6,36.4,30.05,North,350,3.0,4.0,58,0.00,,,0.00,21,WeatherCatV1.21B27,2013-10-22 23:14:00,
2013-10-22 18:15:00,50.6,36.4,30.05,NNW,348,0.0,5.0,58,0.00,,,0.00,21,WeatherCatV1.21B27,2013-10-22 23:15:00,
2013-10-22 18:16:00,50.5,36.3,30.05,NNW,348,0.0,5.0,58,0.00,,,0.00,19,WeatherCatV1.21B27,2013-10-22 23:16:00,
2013-10-22 18:17:00,50.4,36.2,30.05,North,5,7.0,9.0,58,0.00,,,0.00,19,WeatherCatV1.21B27,2013-10-22 23:17:00,
2013-10-22 18:20:00,50.2,36.0,30.05,North,355,2.0,6.0,58,0.00,,,0.00,19,WeatherCatV1.21B27,2013-10-22 23:20:00,
2013-10-22 18:21:00,50.2,36.4,30.05,North,355,1.0,3.0,59,0.00,,,0.00,19,WeatherCatV1.21B27,2013-10-22 23:21:00,
2013-10-22 18:22:00,50.1,36.3,30.05,North,0,4.0,7.0,59,0.00,,,0.00,21,WeatherCatV1.21B27,2013-10-22 23:22:00,
2013-10-22 18:25:00,49.9,36.2,30.04,NNE,18,3.0,7.0,59,0.00,,,0.00,25,WeatherCatV1.21B27,2013-10-22 23:25:00,
2013-10-22 18:26:00,49.8,36.0,30.04,NNE,21,2.0,9.0,59,0.00,,,0.00,25,WeatherCatV1.21B27,2013-10-22 23:26:00,
2013-10-22 18:27:00,49.7,36.0,30.04,NNE,19,2.0,9.0,59,0.00,,,0.00,23,WeatherCatV1.21B27,2013-10-22 23:27:00,
2013-10-22 18:28:00,49.6,35.9,30.05,NNE,20,0.0,6.0,59,0.00,,,0.00,21,WeatherCatV1.21B27,2013-10-22 23:28:00,
2013-10-22 18:30:00,49.5,35.8,30.05,North,0,4.0,6.0,59,0.00,,,0.00,18,WeatherCatV1.21B27,2013-10-22 23:30:00,
2013-10-22 18:31:00,49.4,35.7,30.05,NNE,23,4.0,10.0,59,0.00,,,0.00,16,WeatherCatV1.21B27,2013-10-22 23:31:00,
2013-10-22 18:32:00,49.3,35.6,30.05,NNE,22,0.0,10.0,59,0.00,,,0.00,16,WeatherCatV1.21B27,2013-10-22 23:32:00,
2013-10-22 18:33:00,49.3,36.0,30.04,NNE,17,3.0,5.0,60,0.00,,,0.00,14,WeatherCatV1.21B27,2013-10-22 23:33:00,
2013-10-22 18:35:00,49.2,35.9,30.05,NNE,13,2.0,6.0,60,0.00,,,0.00,11,WeatherCatV1.21B27,2013-10-22 23:35:00,
2013-10-22 18:36:00,49.2,35.9,30.05,NE,34,0.0,6.0,60,0.00,,,0.00,11,WeatherCatV1.21B27,2013-10-22 23:36:00,
2013-10-22 18:37:00,49.2,35.9,30.05,NE,41,5.0,11.0,60,0.00,,,0.00,7,WeatherCatV1.21B27,2013-10-22 23:37:00,
2013-10-22 18:39:00,49.1,35.8,30.05,NE,34,11.0,11.0,60,0.00,,,0.00,5,WeatherCatV1.21B27,2013-10-22 23:39:00,
2013-10-22 18:40:00,49.0,35.7,30.05,NE,45,7.0,14.0,60,0.00,,,0.00,5,WeatherCatV1.21B27,2013-10-22 23:40:00,
2013-10-22 18:41:00,49.0,35.7,30.05,NNE,18,2.0,14.0,60,0.00,,,0.00,5,WeatherCatV1.21B27,2013-10-22 23:41:00,
2013-10-22 18:42:00,48.9,35.6,30.05,NNE,22,5.0,7.0,60,0.00,,,0.00,5,WeatherCatV1.21B27,2013-10-22 23:42:00,
2013-10-22 18:44:00,48.8,35.5,30.05,North,10,9.0,9.0,60,0.00,,,0.00,0,WeatherCatV1.21B27,2013-10-22 23:44:00,
2013-10-22 18:45:00,48.7,35.9,30.05,NNE,17,1.0,10.0,61,0.00,,,0.00,0,WeatherCatV1.21B27,2013-10-22 23:45:00,
2013-10-22 18:46:00,48.6,35.8,30.05,NNE,26,4.0,7.0,61,0.00,,,0.00,0,WeatherCatV1.21B27,2013-10-22 23:46:00,
2013-10-22 18:47:00,48.5,35.7,30.05,NNE,26,3.0,7.0,61,0.00,,,0.00,0,WeatherCatV1.21B27,2013-10-22 23:47:00,
2013-10-22 18:48:00,48.4,35.6,30.05,NNE,21,2.0,7.0,61,0.00,,,0.00,0,WeatherCatV1.21B27,2013-10-22 23:48:00,
2013-10-22 18:49:00,48.3,35.5,30.05,NNE,19,4.0,7.0,61,0.00,,,0.00,0,WeatherCatV1.21B27,2013-10-22 23:49:00,
2013-10-22 18:50:00,48.1,35.3,30.06,North,5,4.0,7.0,61,0.00,,,0.00,0,WeatherCatV1.21B27,2013-10-22 23:50:00,
2013-10-22 18:52:00,47.9,35.5,30.06,North,0,0.0,6.0,62,0.00,,,0.00,0,WeatherCatV1.21B27,2013-10-22 23:52:00,
2013-10-22 18:53:00,47.8,35.4,30.06,NNE,15,2.0,11.0,62,0.00,,,0.00,0,WeatherCatV1.21B27,2013-10-22 23:53:00,
2013-10-22 18:54:00,47.7,35.3,30.06,NNE,17,0.0,11.0,62,0.00,,,0.00,0,WeatherCatV1.21B27,2013-10-22 23:54:00,
2013-10-22 18:56:00,47.5,35.1,30.06,NNE,22,2.0,9.0,62,0.00,,,0.00,0,WeatherCatV1.21B27,2013-10-22 23:56:00,
2013-10-22 18:57:00,47.4,35.0,30.06,NNE,22,5.0,9.0,62,0.00,,,0.00,0,WeatherCatV1.21B27,2013-10-22 23:57:00,
2013-10-22 18:58:00,47.3,35.3,30.06,North,9,0.0,9.0,63,0.00,,,0.00,0,WeatherCatV1.21B27,2013-10-22 23:58:00,
2013-10-22 19:00:00,47.2,35.3,30.06,NNE,32,3.0,10.0,63,0.00,,,0.00,0,WeatherCatV1.21B27,2013-10-23 00:00:00,
2013-10-22 19:01:00,47.1,35.2,30.06,NNE,32,1.0,2.0,63,0.00,,,0.00,0,WeatherCatV1.21B27,2013-10-23 00:01:00,
2013-10-22 19:02:00,47.0,35.1,30.07,NNW,347,2.0,5.0,63,0.00,,,0.00,0,WeatherCatV1.21B27,2013-10-23 00:02:00,
2013-10-22 19:03:00,47.0,35.1,30.06,NNW,347,1.0,5.0,63,0.00,,,0.00,0,WeatherCatV1.21B27,2013-10-23 00:03:00,
2013-10-22 19:04:00,46.9,35.4,30.06,NNE,21,1.0,7.0,64,0.00,,,0.00,0,WeatherCatV1.21B27,2013-10-23 00:04:00,
2013-10-22 19:05:00,46.9,35.4,30.07,NNE,21,0.0,7.0,64,0.00,,,0.00,0,WeatherCatV1.21B27,2013-10-23 00:05:00,
2013-10-22 19:07:00,46.7,35.2,30.07,NNE,22,2.0,2.0,64,0.00,,,0.00,0,WeatherCatV1.21B27,2013-10-23 00:07:00,
2013-10-22 19:08:00,46.7,35.2,30.07,NNE,24,3.0,4.0,64,0.00,,,0.00,0,WeatherCatV1.21B27,2013-10-23 00:08:00,
2013-10-22 19:10:00,46.6,35.1,30.07,NNE,17,3.0,9.0,64,0.00,,,0.00,0,WeatherCatV1.21B27,2013-10-23 00:10:00,
2013-10-22 19:12:00,46.5,35.0,30.07,NNE,22,2.0,6.0,64,0.00,,,0.00,0,WeatherCatV1.21B27,2013-10-23 00:12:00,
2013-10-22 19:13:00,46.4,34.9,30.07,NNE,22,2.0,2.0,64,0.00,,,0.00,0,WeatherCatV1.21B27,2013-10-23 00:13:00,
2013-10-22 19:15:00,46.3,34.8,30.07,NNE,21,5.0,5.0,64,0.00,,,0.00,0,WeatherCatV1.21B27,2013-10-23 00:15:00,
2013-10-22 19:17:00,46.2,35.1,30.07,North,355,7.0,9.0,65,0.00,,,0.00,0,WeatherCatV1.21B27,2013-10-23 00:17:00,
2013-10-22 19:18:00,46.1,35.0,30.07,North,355,5.0,9.0,65,0.00,,,0.00,0,WeatherCatV1.21B27,2013-10-23 00:18:00,
2013-10-22 19:20:00,46.1,35.0,30.07,North,355,2.0,4.0,65,0.00,,,0.00,0,WeatherCatV1.21B27,2013-10-23 00:20:00,
2013-10-22 19:22:00,46.0,34.9,30.07,NNE,17,2.0,8.0,65,0.00,,,0.00,0,WeatherCatV1.21B27,2013-10-23 00:22:00,
2013-10-22 19:23:00,46.0,34.9,30.07,NNE,17,1.0,8.0,65,0.00,,,0.00,0,WeatherCatV1.21B27,2013-10-23 00:23:00,
2013-10-22 19:24:00,45.9,34.8,30.07,NNE,17,1.0,3.0,65,0.00,,,0.00,0,WeatherCatV1.21B27,2013-10-23 00:24:00,
2013-10-22 19:25:00,45.9,34.8,30.07,NNE,17,1.0,3.0,65,0.00,,,0.00,0,WeatherCatV1.21B27,2013-10-23 00:25:00,
2013-10-22 19:26:00,45.8,35.1,30.07,NNE,16,5.0,5.0,66,0.00,,,0.00,0,WeatherCatV1.21B27,2013-10-23 00:26:00,
2013-10-22 19:27:00,45.8,35.1,30.08,NE,34,3.0,9.0,66,0.00,,,0.00,0,WeatherCatV1.21B27,2013-10-23 00:27:00,
2013-10-22 19:28:00,45.7,35.0,30.08,NNE,13,4.0,9.0,66,0.00,,,0.00,0,WeatherCatV1.21B27,2013-10-23 00:28:00,
2013-10-22 19:29:00,45.7,35.0,30.08,NNE,15,1.0,6.0,66,0.00,,,0.00,0,WeatherCatV1.21B27,2013-10-23 00:29:00,
2013-10-22 19:30:00,45.6,34.9,30.08,NNE,16,0.0,2.0,66,0.00,,,0.00,0,WeatherCatV1.21B27,2013-10-23 00:30:00,
2013-10-22 19:31:00,45.5,34.8,30.08,NNE,16,0.0,1.0,66,0.00,,,0.00,0,WeatherCatV1.21B27,2013-10-23 00:31:00,
2013-10-22 19:32:00,45.5,34.8,30.07,NNE,33,5.0,5.0,66,0.00,,,0.00,0,WeatherCatV1.21B27,2013-10-23 00:32:00,
2013-10-22 19:33:00,45.4,34.7,30.08,NE,41,5.0,5.0,66,0.00,,,0.00,0,WeatherCatV1.21B27,2013-10-23 00:33:00,
2013-10-22 19:34:00,45.4,34.7,30.08,NE,42,2.0,5.0,66,0.00,,,0.00,0,WeatherCatV1.21B27,2013-10-23 00:34:00,
2013-10-22 19:35:00,45.3,35.0,30.08,NE,41,0.0,3.0,67,0.00,,,0.00,0,WeatherCatV1.21B27,2013-10-23 00:35:00,
2013-10-22 19:36:00,45.2,34.9,30.08,NE,42,2.0,3.0,67,0.00,,,0.00,0,WeatherCatV1.21B27,2013-10-23 00:36:00,
2013-10-22 19:38:00,45.1,34.8,30.08,NE,34,2.0,4.0,67,0.00,,,0.00,0,WeatherCatV1.21B27,2013-10-23 00:38:00,
2013-10-22 19:39:00,45.0,34.7,30.08,NE,34,1.0,5.0,67,0.00,,,0.00,0,WeatherCatV1.21B27,2013-10-23 00:39:00,
2013-10-22 19:40:00,44.9,34.6,30.08,NNE,26,0.0,12.0,67,0.00,,,0.00,0,WeatherCatV1.21B27,2013-10-23 00:40:00,
2013-10-22 19:42:00,44.8,34.5,30.08,NNE,29,2.0,7.0,67,0.00,,,0.00,0,WeatherCatV1.21B27,2013-10-23 00:42:00,
2013-10-22 19:43:00,44.7,34.4,30.08,NE,35,2.0,7.0,67,0.00,,,0.00,0,WeatherCatV1.21B27,2013-10-23 00:43:00,
2013-10-22 19:44:00,44.7,34.4,30.08,NE,36,0.0,3.0,67,0.00,,,0.00,0,WeatherCatV1.21B27,2013-10-23 00:44:00,
2013-10-22 19:46:00,44.5,34.2,30.08,NNE,32,1.0,7.0,67,0.00,,,0.00,0,WeatherCatV1.21B27,2013-10-23 00:46:00,
2013-10-22 19:47:00,44.4,34.5,30.08,NNE,32,2.0,7.0,68,0.00,,,0.00,0,WeatherCatV1.21B27,2013-10-23 00:47:00,
2013-10-22 19:48:00,44.4,34.5,30.08,NE,34,0.0,11.0,68,0.00,,,0.00,0,WeatherCatV1.21B27,2013-10-23 00:48:00,
2013-10-22 19:49:00,44.3,34.4,30.08,NNE,32,2.0,4.0,68,0.00,,,0.00,0,WeatherCatV1.21B27,2013-10-23 00:49:00,
2013-10-22 19:50:00,44.2,34.3,30.08,NNE,24,7.0,7.0,68,0.00,,,0.00,0,WeatherCatV1.21B27,2013-10-23 00:50:00,
2013-10-22 19:51:00,44.1,34.2,30.08,ESE,108,7.0,9.0,68,0.00,,,0.00,0,WeatherCatV1.21B27,2013-10-23 00:51:00,
2013-10-22 19:52:00,44.1,34.2,30.08,NE,51,4.0,7.0,68,0.00,,,0.00,0,WeatherCatV1.21B27,2013-10-23 00:52:00,
2013-10-22 19:53:00,44.0,34.1,30.08,NE,51,0.0,7.0,68,0.00,,,0.00,0,WeatherCatV1.21B27,2013-10-23 00:53:00,
2013-10-22 19:54:00,44.0,34.1,30.08,NNE,17,3.0,6.0,68,0.00,,,0.00,0,WeatherCatV1.21B27,2013-10-23 00:54:00,
2013-10-22 19:55:00,43.9,34.0,30.08,NNE,17,1.0,6.0,68,0.00,,,0.00,0,WeatherCatV1.21B27,2013-10-23 00:55:00,
2013-10-22 19:57:00,43.8,34.3,30.08,NNE,17,2.0,2.0,69,0.00,,,0.00,0,WeatherCatV1.21B27,2013-10-23 00:57:00,
2013-10-22 19:58:00,43.7,34.2,30.08,NNW,345,1.0,5.0,69,0.00,,,0.00,0,WeatherCatV1.21B27,2013-10-23 00:58:00,
2013-10-22 19:59:00,43.6,34.1,30.08,NNW,348,2.0,5.0,69,0.00,,,0.00,0,WeatherCatV1.21B27,2013-10-23 00:59:00,
2013-10-22 20:00:00,43.6,34.1,30.08,NNW,348,0.0,5.0,69,0.00,,,0.00,0,WeatherCatV1.21B27,2013-10-23 01:00:00,
2013-10-22 20:02:00,43.5,34.0,30.08,North,0,1.0,3.0,69,0.00,,,0.00,0,WeatherCatV1.21B27,2013-10-23 01:02:00,
2013-10-22 20:03:00,43.4,33.9,30.08,North,0,3.0,4.0,69,0.00,,,0.00,0,WeatherCatV1.21B27,2013-10-23 01:03:00,
2013-10-22 20:05:00,43.3,34.2,30.08,North,0,0.0,4.0,70,0.00,,,0.00,0,WeatherCatV1.21B27,2013-10-23 01:05:00,
2013-10-22 20:07:00,43.3,34.2,30.08,NNE,19,2.0,5.0,70,0.00,,,0.00,0,WeatherCatV1.21B27,2013-10-23 01:07:00,
2013-10-22 20:08:00,43.2,34.1,30.08,NNE,19,0.0,3.0,70,0.00,,,0.00,0,WeatherCatV1.21B27,2013-10-23 01:08:00,
2013-10-22 20:10:00,43.1,34.0,30.08,NNE,21,1.0,5.0,70,0.00,,,0.00,0,WeatherCatV1.21B27,2013-10-23 01:10:00,
2013-10-22 20:12:00,43.0,34.2,30.08,NNE,19,1.0,3.0,71,0.00,,,0.00,0,WeatherCatV1.21B27,2013-10-23 01:12:00,
2013-10-22 20:13:00,42.9,34.2,30.08,NNE,26,7.0,7.0,71,0.00,,,0.00,0,WeatherCatV1.21B27,2013-10-23 01:13:00,
2013-10-22 20:14:00,42.9,34.2,30.08,NNE,28,4.0,9.0,71,0.00,,,0.00,0,WeatherCatV1.21B27,2013-10-23 01:14:00,
2013-10-22 20:15:00,42.8,34.1,30.08,NNE,28,0.0,5.0,71,0.00,,,0.00,0,WeatherCatV1.21B27,2013-10-23 01:15:00,
2013-10-22 20:16:00,42.8,34.1,30.08,NNE,28,0.0,5.0,71,0.00,,,0.00,0,WeatherCatV1.21B27,2013-10-23 01:16:00,
2013-10-22 20:17:00,42.7,34.0,30.08,NE,34,0.0,4.0,71,0.00,,,0.00,0,WeatherCatV1.21B27,2013-10-23 01:17:00,
2013-10-22 20:18:00,42.7,34.0,30.08,NE,37,1.0,3.0,71,0.00,,,0.00,0,WeatherCatV1.21B27,2013-10-23 01:18:00,
2013-10-22 20:19:00,42.6,33.9,30.08,NE,37,0.0,3.0,71,0.00,,,0.00,0,WeatherCatV1.21B27,2013-10-23 01:19:00,
2013-10-22 20:20:00,42.5,34.1,30.08,NE,37,1.0,4.0,72,0.00,,,0.00,0,WeatherCatV1.21B27,2013-10-23 01:20:00,
2013-10-22 20:21:00,42.5,34.1,30.08,NE,37,2.0,4.0,72,0.00,,,0.00,0,WeatherCatV1.21B27,2013-10-23 01:21:00,
2013-10-22 20:22:00,42.4,34.0,30.08,NE,38,3.0,6.0,72,0.00,,,0.00,0,WeatherCatV1.21B27,2013-10-23 01:22:00,
2013-10-22 20:24:00,42.4,34.0,30.08,NE,38,0.0,6.0,72,0.00,,,0.00,0,WeatherCatV1.21B27,2013-10-23 01:24:00,
2013-10-22 20:26:00,42.3,33.9,30.08,NE,38,1.0,5.0,72,0.00,,,0.00,0,WeatherCatV1.21B27,2013-10-23 01:26:00,
2013-10-22 20:28:00,42.2,33.8,30.09,NE,38,0.0,2.0,72,0.00,,,0.00,0,WeatherCatV1.21B27,2013-10-23 01:28:00,
2013-10-22 20:29:00,42.2,33.8,30.09,NE,37,2.0,3.0,72,0.00,,,0.00,0,WeatherCatV1.21B27,2013-10-23 01:29:00,
2013-10-22 20:31:00,42.0,34.0,30.09,NE,37,0.0,6.0,73,0.00,,,0.00,0,WeatherCatV1.21B27,2013-10-23 01:31:00,
2013-10-22 20:33:00,42.0,34.0,30.09,NE,37,0.0,2.0,73,0.00,,,0.00,0,WeatherCatV1.21B27,2013-10-23 01:33:00,
2013-10-22 20:34:00,41.9,33.9,30.09,NE,36,0.0,6.0,73,0.00,,,0.00,0,WeatherCatV1.21B27,2013-10-23 01:34:00,
2013-10-22 20:35:00,41.9,33.9,30.09,NE,36,0.0,6.0,73,0.00,,,0.00,0,WeatherCatV1.21B27,2013-10-23 01:35:00,
2013-10-22 20:36:00,41.8,33.8,30.09,NE,36,4.0,4.0,73,0.00,,,0.00,0,WeatherCatV1.21B27,2013-10-23 01:36:00,
2013-10-22 20:38:00,41.8,33.8,30.09,NE,36,1.0,5.0,73,0.00,,,0.00,0,WeatherCatV1.21B27,2013-10-23 01:38:00,
2013-10-22 20:39:00,41.7,33.7,30.09,NE,36,0.0,5.0,73,0.00,,,0.00,0,WeatherCatV1.21B27,2013-10-23 01:39:00,
2013-10-22 20:40:00,41.7,33.7,30.09,NE,36,0.0,2.0,73,0.00,,,0.00,0,WeatherCatV1.21B27,2013-10-23 01:40:00,
2013-10-22 20:41:00,41.7,34.0,30.09,NE,36,0.0,0.0,74,0.00,,,0.00,0,WeatherCatV1.21B27,2013-10-23 01:41:00,
2013-10-22 20:42:00,41.6,33.9,30.09,NE,36,0.0,0.0,74,0.00,,,0.00,0,WeatherCatV1.21B27,2013-10-23 01:42:00,
2013-10-22 20:44:00,41.6,33.9,30.09,NE,36,0.0,0.0,74,0.00,,,0.00,0,WeatherCatV1.21B27,2013-10-23 01:44:00,
2013-10-22 20:45:00,41.5,33.8,30.09,NE,36,0.0,0.0,74,0.00,,,0.00,0,WeatherCatV1.21B27,2013-10-23 01:45:00,
2013-10-22 20:46:00,41.5,33.8,30.09,NE,36,0.0,4.0,74,0.00,,,0.00,0,WeatherCatV1.21B27,2013-10-23 01:46:00,
2013-10-22 20:47:00,41.4,33.7,30.09,NE,36,0.0,4.0,74,0.00,,,0.00,0,WeatherCatV1.21B27,2013-10-23 01:47:00,
2013-10-22 20:49:00,41.4,33.7,30.09,NE,36,0.0,0.0,74,0.00,,,0.00,0,WeatherCatV1.21B27,2013-10-23 01:49:00,
2013-10-22 20:50:00,41.4,33.7,30.09,NE,36,0.0,0.0,74,0.00,,,0.00,0,WeatherCatV1.21B27,2013-10-23 01:50:00,
2013-10-22 20:51:00,41.3,33.7,30.09,NE,36,4.0,4.0,74,0.00,,,0.00,0,WeatherCatV1.21B27,2013-10-23 01:51:00,
2013-10-22 20:53:00,41.3,34.0,30.09,NE,36,0.0,4.0,75,0.00,,,0.00,0,WeatherCatV1.21B27,2013-10-23 01:53:00,
2013-10-22 20:54:00,41.3,34.0,30.09,NE,36,0.0,0.0,75,0.00,,,0.00,0,WeatherCatV1.21B27,2013-10-23 01:54:00,
2013-10-22 20:55:00,41.3,34.0,30.09,NE,36,0.0,0.0,75,0.00,,,0.00,0,WeatherCatV1.21B27,2013-10-23 01:55:00,
2013-10-22 20:56:00,41.4,34.1,30.09,NE,36,0.0,0.0,75,0.00,,,0.00,0,WeatherCatV1.21B27,2013-10-23 01:56:00,
2013-10-22 20:58:00,41.4,34.1,30.10,NE,36,4.0,5.0,75,0.00,,,0.00,0,WeatherCatV1.21B27,2013-10-23 01:58:00,
2013-10-22 20:59:00,41.4,34.1,30.10,NE,36,3.0,5.0,75,0.00,,,0.00,0,WeatherCatV1.21B27,2013-10-23 01:59:00,
2013-10-22 21:00:00,41.4,34.1,30.09,NE,36,3.0,4.0,75,0.00,,,0.00,0,WeatherCatV1.21B27,2013-10-23 02:00:00,
2013-10-22 21:02:00,41.4,34.1,30.10,NE,36,3.0,4.0,75,0.00,,,0.00,0,WeatherCatV1.21B27,2013-10-23 02:02:00,
2013-10-22 21:03:00,41.4,34.1,30.09,NE,36,0.0,4.0,75,0.00,,,0.00,0,WeatherCatV1.21B27,2013-10-23 02:03:00,
2013-10-22 21:04:00,41.4,34.1,30.10,NE,37,0.0,4.0,75,0.00,,,0.00,0,WeatherCatV1.21B27,2013-10-23 02:04:00,
2013-10-22 21:05:00,41.4,34.1,30.09,NE,37,0.0,1.0,75,0.00,,,0.00,0,WeatherCatV1.21B27,2013-10-23 02:05:00,
2013-10-22 21:07:00,41.4,34.1,30.09,NE,37,5.0,5.0,75,0.00,,,0.00,0,WeatherCatV1.21B27,2013-10-23 02:07:00,
2013-10-22 21:08:00,41.5,34.2,30.09,NE,37,0.0,5.0,75,0.00,,,0.00,0,WeatherCatV1.21B27,2013-10-23 02:08:00,
2013-10-22 21:09:00,41.5,34.2,30.09,NE,37,0.0,1.0,75,0.00,,,0.00,0,WeatherCatV1.21B27,2013-10-23 02:09:00,
2013-10-22 21:10:00,41.5,34.2,30.10,North,9,2.0,9.0,75,0.00,,,0.00,0,WeatherCatV1.21B27,2013-10-23 02:10:00,
2013-10-22 21:12:00,41.5,34.2,30.10,NNE,15,2.0,6.0,75,0.00,,,0.00,0,WeatherCatV1.21B27,2013-10-23 02:12:00,
2013-10-22 21:13:00,41.5,34.2,30.09,NNE,15,3.0,4.0,75,0.00,,,0.00,0,WeatherCatV1.21B27,2013-10-23 02:13:00,
2013-10-22 21:14:00,41.5,34.2,30.09,NNE,15,2.0,4.0,75,0.00,,,0.00,0,WeatherCatV1.21B27,2013-10-23 02:14:00,
2013-10-22 21:15:00,41.5,34.2,30.09,NNE,17,2.0,3.0,75,0.00,,,0.00,0,WeatherCatV1.21B27,2013-10-23 02:15:00,
2013-10-22 21:16:00,41.5,34.2,30.09,NNE,17,1.0,3.0,75,0.00,,,0.00,0,WeatherCatV1.21B27,2013-10-23 02:16:00,
2013-10-22 21:17:00,41.5,34.2,30.09,NNE,18,0.0,3.0,75,0.00,,,0.00,0,WeatherCatV1.21B27,2013-10-23 02:17:00,
2013-10-22 21:18:00,41.5,34.2,30.09,NNE,18,0.0,0.0,75,0.00,,,0.00,0,WeatherCatV1.21B27,2013-10-23 02:18:00,
2013-10-22 21:19:00,41.5,34.2,30.09,NNE,18,1.0,1.0,75,0.00,,,0.00,0,WeatherCatV1.21B27,2013-10-23 02:19:00,
2013-10-22 21:20:00,41.5,34.2,30.09,NNE,15,0.0,4.0,75,0.00,,,0.00,0,WeatherCatV1.21B27,2013-10-23 02:20:00,
2013-10-22 21:21:00,41.5,34.2,30.09,NNE,17,0.0,4.0,75,0.00,,,0.00,0,WeatherCatV1.21B27,2013-10-23 02:21:00,
2013-10-22 21:22:00,41.5,34.2,30.09,NNE,17,0.0,5.0,75,0.00,,,0.00,0,WeatherCatV1.21B27,2013-10-23 02:22:00,
2013-10-22 21:23:00,41.4,34.1,30.09,NNE,17,1.0,5.0,75,0.00,,,0.00,0,WeatherCatV1.21B27,2013-10-23 02:23:00,
2013-10-22 21:24:00,41.4,34.1,30.09,NNE,17,0.0,3.0,75,0.00,,,0.00,0,WeatherCatV1.21B27,2013-10-23 02:24:00,
2013-10-22 21:25:00,41.4,34.1,30.09,NNE,17,2.0,2.0,75,0.00,,,0.00,0,WeatherCatV1.21B27,2013-10-23 02:25:00,
2013-10-22 21:26:00,41.4,34.1,30.09,NNE,17,3.0,3.0,75,0.00,,,0.00,0,WeatherCatV1.21B27,2013-10-23 02:26:00,
2013-10-22 21:28:00,41.3,34.0,30.09,NNE,17,0.0,2.0,75,0.00,,,0.00,0,WeatherCatV1.21B27,2013-10-23 02:28:00,
2013-10-22 21:29:00,41.3,34.0,30.10,NNE,17,2.0,3.0,75,0.00,,,0.00,0,WeatherCatV1.21B27,2013-10-23 02:29:00,
2013-10-22 21:31:00,41.3,34.0,30.10,NNE,17,1.0,3.0,75,0.00,,,0.00,0,WeatherCatV1.21B27,2013-10-23 02:31:00,
2013-10-22 21:33:00,41.2,33.9,30.10,NNE,17,0.0,1.0,75,0.00,,,0.00,0,WeatherCatV1.21B27,2013-10-23 02:33:00,
2013-10-22 21:34:00,41.2,33.9,30.10,NNE,17,0.0,4.0,75,0.00,,,0.00,0,WeatherCatV1.21B27,2013-10-23 02:34:00,
2013-10-22 21:35:00,41.2,33.9,30.10,NNE,16,1.0,4.0,75,0.00,,,0.00,0,WeatherCatV1.21B27,2013-10-23 02:35:00,
2013-10-22 21:36:00,41.1,33.8,30.09,NNE,17,0.0,4.0,75,0.00,,,0.00,0,WeatherCatV1.21B27,2013-10-23 02:36:00,
2013-10-22 21:39:00,41.1,33.8,30.10,NNE,17,0.0,3.0,75,0.00,,,0.00,0,WeatherCatV1.21B27,2013-10-23 02:39:00,
2013-10-22 21:40:00,41.1,33.8,30.10,NNE,17,0.0,3.0,75,0.00,,,0.00,0,WeatherCatV1.21B27,2013-10-23 02:40:00,
2013-10-22 21:41:00,41.1,33.8,30.10,NNE,17,0.0,3.0,75,0.00,,,0.00,0,WeatherCatV1.21B27,2013-10-23 02:41:00,
2013-10-22 21:42:00,41.1,33.8,30.10,NNE,17,0.0,3.0,75,0.00,,,0.00,0,WeatherCatV1.21B27,2013-10-23 02:42:00,
2013-10-22 21:45:00,41.0,34.0,30.10,NNE,17,1.0,2.0,76,0.00,,,0.00,0,WeatherCatV1.21B27,2013-10-23 02:45:00,
2013-10-22 21:46:00,41.0,34.0,30.10,NNE,17,4.0,5.0,76,0.00,,,0.00,0,WeatherCatV1.21B27,2013-10-23 02:46:00,
2013-10-22 21:47:00,41.0,34.0,30.11,NNE,17,0.0,5.0,76,0.00,,,0.00,0,WeatherCatV1.21B27,2013-10-23 02:47:00,
2013-10-22 21:50:00,40.9,33.9,30.11,NNE,15,0.0,5.0,76,0.00,,,0.00,0,WeatherCatV1.21B27,2013-10-23 02:50:00,
2013-10-22 21:51:00,40.9,33.9,30.11,NNE,16,0.0,5.0,76,0.00,,,0.00,0,WeatherCatV1.21B27,2013-10-23 02:51:00,
2013-10-22 21:52:00,40.9,33.9,30.11,NNE,16,0.0,0.0,76,0.00,,,0.00,0,WeatherCatV1.21B27,2013-10-23 02:52:00,
2013-10-22 21:53:00,40.8,33.8,30.11,NNE,16,1.0,3.0,76,0.00,,,0.00,0,WeatherCatV1.21B27,2013-10-23 02:53:00,
2013-10-22 21:55:00,40.8,33.8,30.11,NNE,16,2.0,4.0,76,0.00,,,0.00,0,WeatherCatV1.21B27,2013-10-23 02:55:00,
2013-10-22 21:56:00,40.8,33.8,30.11,NNE,15,0.0,4.0,76,0.00,,,0.00,0,WeatherCatV1.21B27,2013-10-23 02:56:00,
2013-10-22 21:57:00,40.7,33.7,30.11,NNE,16,1.0,5.0,76,0.00,,,0.00,0,WeatherCatV1.21B27,2013-10-23 02:57:00,
2013-10-22 21:58:00,40.8,33.8,30.11,NNE,16,3.0,5.0,76,0.00,,,0.00,0,WeatherCatV1.21B27,2013-10-23 02:58:00,
2013-10-22 22:00:00,40.8,33.8,30.11,NNE,15,2.0,4.0,76,0.00,,,0.00,0,WeatherCatV1.21B27,2013-10-23 03:00:00,
2013-10-22 22:01:00,40.8,33.8,30.11,NNE,15,0.0,3.0,76,0.00,,,0.00,0,WeatherCatV1.21B27,2013-10-23 03:01:00,
2013-10-22 22:02:00,40.7,33.7,30.11,NNE,15,0.0,0.0,76,0.00,,,0.00,0,WeatherCatV1.21B27,2013-10-23 03:02:00,
2013-10-22 22:04:00,40.7,33.7,30.11,NNE,15,0.0,0.0,76,0.00,,,0.00,0,WeatherCatV1.21B27,2013-10-23 03:04:00,
2013-10-22 22:05:00,40.7,33.7,30.11,NNE,16,0.0,0.0,76,0.00,,,0.00,0,WeatherCatV1.21B27,2013-10-23 03:05:00,
2013-10-22 22:06:00,40.7,34.1,30.11,NNE,16,0.0,2.0,77,0.00,,,0.00,0,WeatherCatV1.21B27,2013-10-23 03:06:00,
2013-10-22 22:07:00,40.7,34.1,30.11,NNE,15,3.0,3.0,77,0.00,,,0.00,0,WeatherCatV1.21B27,2013-10-23 03:07:00,
2013-10-22 22:09:00,40.7,34.1,30.11,NNE,15,0.0,0.0,77,0.00,,,0.00,0,WeatherCatV1.21B27,2013-10-23 03:09:00,
2013-10-22 22:10:00,40.7,34.1,30.11,NNE,16,0.0,0.0,77,0.00,,,0.00,0,WeatherCatV1.21B27,2013-10-23 03:10:00,
2013-10-22 22:11:00,40.7,34.1,30.11,NNE,16,0.0,1.0,77,0.00,,,0.00,0,WeatherCatV1.21B27,2013-10-23 03:11:00,
2013-10-22 22:12:00,40.7,33.7,30.11,NNE,16,0.0,1.0,76,0.00,,,0.00,0,WeatherCatV1.21B27,2013-10-23 03:12:00,
2013-10-22 22:14:00,40.7,34.1,30.11,NNE,16,0.0,1.0,77,0.00,,,0.00,0,WeatherCatV1.21B27,2013-10-23 03:14:00,
2013-10-22 22:15:00,40.7,33.7,30.10,NNE,16,0.0,0.0,76,0.00,,,0.00,0,WeatherCatV1.21B27,2013-10-23 03:15:00,
2013-10-22 22:16:00,40.7,33.7,30.10,NNE,16,0.0,0.0,76,0.00,,,0.00,0,WeatherCatV1.21B27,2013-10-23 03:16:00,
2013-10-22 22:17:00,40.7,33.7,30.11,NNE,15,0.0,0.0,76,0.00,,,0.00,0,WeatherCatV1.21B27,2013-10-23 03:17:00,
2013-10-22 22:18:00,40.6,34.0,30.11,NNE,15,0.0,0.0,77,0.00,,,0.00,0,WeatherCatV1.21B27,2013-10-23 03:18:00,
2013-10-22 22:20:00,40.6,34.0,30.10,NNE,16,0.0,0.0,77,0.00,,,0.00,0,WeatherCatV1.21B27,2013-10-23 03:20:00,
2013-10-22 22:21:00,40.6,34.0,30.10,NNE,16,0.0,0.0,77,0.00,,,0.00,0,WeatherCatV1.21B27,2013-10-23 03:21:00,
2013-10-22 22:22:00,40.6,34.0,30.10,NNE,16,0.0,0.0,77,0.00,,,0.00,0,WeatherCatV1.21B27,2013-10-23 03:22:00,
2013-10-22 22:23:00,40.5,33.9,30.11,NNE,16,0.0,0.0,77,0.00,,,0.00,0,WeatherCatV1.21B27,2013-10-23 03:23:00,
2013-10-22 22:26:00,40.5,33.9,30.11,NNE,16,0.0,2.0,77,0.00,,,0.00,0,WeatherCatV1.21B27,2013-10-23 03:26:00,
2013-10-22 22:27:00,40.4,33.8,30.11,NNE,16,0.0,2.0,77,0.00,,,0.00,0,WeatherCatV1.21B27,2013-10-23 03:27:00,
2013-10-22 22:29:00,40.4,33.8,30.11,NNE,15,0.0,0.0,77,0.00,,,0.00,0,WeatherCatV1.21B27,2013-10-23 03:29:00,
2013-10-22 22:31:00,40.4,33.8,30.11,NNE,15,0.0,0.0,77,0.00,,,0.00,0,WeatherCatV1.21B27,2013-10-23 03:31:00,
2013-10-22 22:32:00,40.3,33.7,30.11,NNE,15,1.0,1.0,77,0.00,,,0.00,0,WeatherCatV1.21B27,2013-10-23 03:32:00,
2013-10-22 22:34:00,40.2,33.6,30.10,NNE,16,0.0,3.0,77,0.00,,,0.00,0,WeatherCatV1.21B27,2013-10-23 03:34:00,
2013-10-22 22:36:00,40.1,33.5,30.10,NNE,16,0.0,0.0,77,0.00,,,0.00,0,WeatherCatV1.21B27,2013-10-23 03:36:00,
2013-10-22 22:37:00,40.0,33.4,30.10,NNE,15,0.0,0.0,77,0.00,,,0.00,0,WeatherCatV1.21B27,2013-10-23 03:37:00,
2013-10-22 22:39:00,39.9,33.3,30.10,NNE,16,0.0,0.0,77,0.00,,,0.00,0,WeatherCatV1.21B27,2013-10-23 03:39:00,
2013-10-22 22:41:00,39.8,33.5,30.10,NNE,16,0.0,0.0,78,0.00,,,0.00,0,WeatherCatV1.21B27,2013-10-23 03:41:00,
2013-10-22 22:42:00,39.8,33.5,30.10,NNE,15,0.0,1.0,78,0.00,,,0.00,0,WeatherCatV1.21B27,2013-10-23 03:42:00,
2013-10-22 22:44:00,39.7,33.4,30.10,NNE,16,0.0,0.0,78,0.00,,,0.00,0,WeatherCatV1.21B27,2013-10-23 03:44:00,
2013-10-22 22:46:00,39.6,33.3,30.10,NNE,15,0.0,0.0,78,0.00,,,0.00,0,WeatherCatV1.21B27,2013-10-23 03:46:00,
2013-10-22 22:47:00,39.7,33.4,30.10,NNE,16,0.0,0.0,78,0.00,,,0.00,0,WeatherCatV1.21B27,2013-10-23 03:47:00,
2013-10-22 22:49:00,39.6,33.3,30.10,NNE,16,0.0,0.0,78,0.00,,,0.00,0,WeatherCatV1.21B27,2013-10-23 03:49:00,
2013-10-22 22:51:00,39.5,33.2,30.10,NNE,15,0.0,0.0,78,0.00,,,0.00,0,WeatherCatV1.21B27,2013-10-23 03:51:00,
2013-10-22 22:52:00,39.5,33.2,30.10,NNE,16,0.0,0.0,78,0.00,,,0.00,0,WeatherCatV1.21B27,2013-10-23 03:52:00,
2013-10-22 22:53:00,39.5,33.2,30.10,NNE,16,0.0,0.0,78,0.00,,,0.00,0,WeatherCatV1.21B27,2013-10-23 03:53:00,
2013-10-22 22:54:00,39.4,33.1,30.10,NNE,16,0.0,0.0,78,0.00,,,0.00,0,WeatherCatV1.21B27,2013-10-23 03:54:00,
2013-10-22 22:55:00,39.4,33.1,30.10,NNE,16,0.0,0.0,78,0.00,,,0.00,0,WeatherCatV1.21B27,2013-10-23 03:55:00,
2013-10-22 22:56:00,39.3,33.0,30.10,NNE,16,0.0,0.0,78,0.00,,,0.00,0,WeatherCatV1.21B27,2013-10-23 03:56:00,
2013-10-22 22:58:00,39.3,33.0,30.10,NNE,16,0.0,0.0,78,0.00,,,0.00,0,WeatherCatV1.21B27,2013-10-23 03:58:00,
2013-10-22 23:00:00,39.2,32.9,30.10,NNE,15,0.0,0.0,78,0.00,,,0.00,0,WeatherCatV1.21B27,2013-10-23 04:00:00,
2013-10-22 23:01:00,39.2,32.9,30.10,NNE,16,0.0,0.0,78,0.00,,,0.00,0,WeatherCatV1.21B27,2013-10-23 04:01:00,
2013-10-22 23:06:00,39.1,33.2,30.10,NNE,15,0.0,0.0,79,0.00,,,0.00,0,WeatherCatV1.21B27,2013-10-23 04:06:00,
2013-10-22 23:11:00,38.9,33.0,30.11,NNE,16,0.0,0.0,79,0.00,,,0.00,0,WeatherCatV1.21B27,2013-10-23 04:11:00,
2013-10-22 23:12:00,38.9,33.0,30.10,NNE,15,0.0,0.0,79,0.00,,,0.00,0,WeatherCatV1.21B27,2013-10-23 04:12:00,
2013-10-22 23:16:00,38.9,33.3,30.10,NNE,16,0.0,0.0,80,0.00,,,0.00,0,WeatherCatV1.21B27,2013-10-23 04:16:00,
2013-10-22 23:17:00,38.8,33.2,30.10,NNE,16,0.0,0.0,80,0.00,,,0.00,0,WeatherCatV1.21B27,2013-10-23 04:17:00,
2013-10-22 23:21:00,38.8,33.2,30.10,NNE,15,0.0,0.0,80,0.00,,,0.00,0,WeatherCatV1.21B27,2013-10-23 04:21:00,
2013-10-22 23:22:00,38.8,33.2,30.10,NNE,16,0.0,0.0,80,0.00,,,0.00,0,WeatherCatV1.21B27,2013-10-23 04:22:00,
2013-10-22 23:26:00,38.8,33.2,30.11,NNE,16,0.0,0.0,80,0.00,,,0.00,0,WeatherCatV1.21B27,2013-10-23 04:26:00,
2013-10-22 23:27:00,38.8,33.2,30.11,NNE,15,0.0,0.0,80,0.00,,,0.00,0,WeatherCatV1.21B27,2013-10-23 04:27:00,
2013-10-22 23:28:00,38.8,33.2,30.11,NNE,16,0.0,0.0,80,0.00,,,0.00,0,WeatherCatV1.21B27,2013-10-23 04:28:00,
2013-10-22 23:29:00,38.8,33.2,30.11,NNE,16,0.0,0.0,80,0.00,,,0.00,0,WeatherCatV1.21B27,2013-10-23 04:29:00,
2013-10-22 23:31:00,38.8,33.5,30.11,NNE,16,0.0,0.0,81,0.00,,,0.00,0,WeatherCatV1.21B27,2013-10-23 04:31:00,
2013-10-22 23:32:00,38.8,33.5,30.11,NNE,16,0.0,0.0,81,0.00,,,0.00,0,WeatherCatV1.21B27,2013-10-23 04:32:00,
2013-10-22 23:33:00,38.8,33.5,30.11,NNE,16,0.0,0.0,81,0.00,,,0.00,0,WeatherCatV1.21B27,2013-10-23 04:33:00,
2013-10-22 23:34:00,38.8,33.5,30.11,NNE,16,0.0,0.0,81,0.00,,,0.00,0,WeatherCatV1.21B27,2013-10-23 04:34:00,
2013-10-22 23:36:00,38.8,33.5,30.11,NNE,16,0.0,0.0,81,0.00,,,0.00,0,WeatherCatV1.21B27,2013-10-23 04:36:00,
2013-10-22 23:37:00,38.8,33.5,30.11,NNE,15,0.0,0.0,81,0.00,,,0.00,0,WeatherCatV1.21B27,2013-10-23 04:37:00,
2013-10-22 23:38:00,38.8,33.5,30.11,NNE,16,0.0,0.0,81,0.00,,,0.00,0,WeatherCatV1.21B27,2013-10-23 04:38:00,
2013-10-22 23:39:00,38.8,33.5,30.11,NNE,16,0.0,0.0,81,0.00,,,0.00,0,WeatherCatV1.21B27,2013-10-23 04:39:00,
2013-10-22 23:41:00,38.8,33.5,30.11,NNE,16,0.0,0.0,81,0.00,,,0.00,0,WeatherCatV1.21B27,2013-10-23 04:41:00,
2013-10-22 23:42:00,38.8,33.5,30.11,NNE,16,0.0,0.0,81,0.00,,,0.00,0,WeatherCatV1.21B27,2013-10-23 04:42:00,
2013-10-22 23:43:00,38.8,33.5,30.11,NNE,15,0.0,0.0,81,0.00,,,0.00,0,WeatherCatV1.21B27,2013-10-23 04:43:00,
2013-10-22 23:45:00,38.8,33.5,30.11,NNE,15,0.0,0.0,81,0.00,,,0.00,0,WeatherCatV1.21B27,2013-10-23 04:45:00,
2013-10-22 23:46:00,38.8,33.8,30.11,NNE,15,0.0,0.0,82,0.00,,,0.00,0,WeatherCatV1.21B27,2013-10-23 04:46:00,
2013-10-22 23:47:00,38.8,33.8,30.11,NNE,16,0.0,0.0,82,0.00,,,0.00,0,WeatherCatV1.21B27,2013-10-23 04:47:00,
2013-10-22 23:48:00,38.8,33.5,30.10,NNE,15,0.0,0.0,81,0.00,,,0.00,0,WeatherCatV1.21B27,2013-10-23 04:48:00,
2013-10-22 23:49:00,38.8,33.5,30.10,NNE,16,0.0,0.0,81,0.00,,,0.00,0,WeatherCatV1.21B27,2013-10-23 04:49:00,
2013-10-22 23:50:00,38.8,33.5,30.11,NNE,16,0.0,0.0,81,0.00,,,0.00,0,WeatherCatV1.21B27,2013-10-23 04:50:00,
2013-10-22 23:52:00,38.8,33.5,30.11,NNE,16,0.0,0.0,81,0.00,,,0.00,0,WeatherCatV1.21B27,2013-10-23 04:52:00,
2013-10-22 23:53:00,38.9,33.9,30.11,NNE,16,0.0,1.0,82,0.00,,,0.00,0,WeatherCatV1.21B27,2013-10-23 04:53:00,
2013-10-22 23:54:00,38.9,33.9,30.11,NNE,15,0.0,1.0,82,0.00,,,0.00,0,WeatherCatV1.21B27,2013-10-23 04:54:00,
2013-10-22 23:55:00,39.0,34.0,30.11,NNE,16,0.0,0.0,82,0.00,,,0.00,0,WeatherCatV1.21B27,2013-10-23 04:55:00,
2013-10-22 23:57:00,39.0,34.0,30.11,NNE,15,0.0,0.0,82,0.00,,,0.00,0,WeatherCatV1.21B27,2013-10-23 04:57:00,
2013-10-22 23:58:00,39.0,33.7,30.11,NNE,15,0.0,0.0,81,0.00,,,0.00,0,WeatherCatV1.21B27,2013-10-23 04:58:00,
2013-10-22 23:59:00,39.0,33.7,30.11,NNE,16,0.0,0.0,81,0.00,,,0.00,0,WeatherCatV1.21B27,2013-10-23 04:59:00,